Observation data for New Home on 01/15/2020      Previous  Date  Next       Current Mesonet Observations  Soil Data  Daily Summary Page  Observations in Plain Language
KNH1 150600Z 23008KT 09/M10 A3003 RMK A01 T00891100  RH  025%=      5-min Rain = 0
KNH1 150601Z 23008KT 09/M10 A3003 RMK A01 T00881099  RH  026%=      5-min Rain = 0
KNH1 150602Z 24008KT 09/M10 A3003 RMK A01 T00871100  RH  025%=      5-min Rain = 0
KNH1 150603Z 24009KT 09/M10 A3003 RMK A01 T00861100  RH  026%=      5-min Rain = 0
KNH1 150604Z 24009KT 09/M10 A3003 RMK A01 T00851101  RH  026%=      5-min Rain = 0
KNH1 150605Z 24009KT 09/M10 A3003 RMK A01 T00851101  RH  026%=      5-min Rain = 0
KNH1 150606Z 24009KT 09/M10 A3003 RMK A01 T00851100  RH  026%=      5-min Rain = 0
KNH1 150607Z 24010KT 09/M10 A3003 RMK A01 T00851100  RH  026%=      5-min Rain = 0
KNH1 150608Z 24010KT 09/M10 A3003 RMK A01 T00851101  RH  026%=      5-min Rain = 0
KNH1 150609Z 24010KT 09/M10 A3003 RMK A01 T00851101  RH  026%=      5-min Rain = 0
KNH1 150610Z 24010KT 09/M10 A3003 RMK A01 T00851100  RH  026%=      5-min Rain = 0
KNH1 150611Z 24010KT 08/M10 A3003 RMK A01 T00841100  RH  026%=      5-min Rain = 0
KNH1 150612Z 24010KT 08/M10 A3003 RMK A01 T00841100  RH  026%=      5-min Rain = 0
KNH1 150613Z 24009KT 08/M10 A3003 RMK A01 T00831100  RH  026%=      5-min Rain = 0
KNH1 150614Z 23010KT 08/M10 A3003 RMK A01 T00831100  RH  026%=      5-min Rain = 0
KNH1 150615Z 23009KT 08/M10 A3003 RMK A01 T00831100  RH  026%=      5-min Rain = 0
KNH1 150616Z 23009KT 08/M10 A3003 RMK A01 T00821100  RH  026%=      5-min Rain = 0
KNH1 150617Z 23008KT 08/M10 A3003 RMK A01 T00821100  RH  026%=      5-min Rain = 0
KNH1 150618Z 23009KT 08/M10 A3003 RMK A01 T00821100  RH  026%=      5-min Rain = 0
KNH1 150619Z 23008KT 08/M10 A3003 RMK A01 T00821100  RH  026%=      5-min Rain = 0
KNH1 150620Z 23008KT 08/M10 A3003 RMK A01 T00821099  RH  027%=      5-min Rain = 0
KNH1 150621Z 23008KT 08/M10 A3003 RMK A01 T00811098  RH  027%=      5-min Rain = 0
KNH1 150622Z 24009KT 08/M10 A3003 RMK A01 T00791100  RH  027%=      5-min Rain = 0
KNH1 150623Z 25008KT 08/M10 A3003 RMK A01 T00781100  RH  027%=      5-min Rain = 0
KNH1 150624Z 24008KT 08/M10 A3003 RMK A01 T00771100  RH  027%=      5-min Rain = 0
KNH1 150625Z 24008KT 08/M10 A3003 RMK A01 T00761101  RH  027%=      5-min Rain = 0
KNH1 150626Z 23008KT 08/M10 A3003 RMK A01 T00751100  RH  027%=      5-min Rain = 0
KNH1 150627Z 23008KT 08/M10 A3003 RMK A01 T00751100  RH  028%=      5-min Rain = 0
KNH1 150628Z 23008KT 08/M10 A3003 RMK A01 T00751100  RH  028%=      5-min Rain = 0
KNH1 150629Z 24008KT 08/M10 A3003 RMK A01 T00751099  RH  028%=      5-min Rain = 0
KNH1 150630Z 24008KT 07/M10 A3003 RMK A01 T00741100  RH  028%=      5-min Rain = 0
KNH1 150631Z 24008KT 07/M10 A3003 RMK A01 T00731099  RH  028%=      5-min Rain = 0
KNH1 150632Z 24008KT 07/M10 A3003 RMK A01 T00711099  RH  028%=      5-min Rain = 0
KNH1 150633Z 23008KT 07/M10 A3003 RMK A01 T00701099  RH  029%=      5-min Rain = 0
KNH1 150634Z 22007KT 07/M10 A3003 RMK A01 T00701099  RH  029%=      5-min Rain = 0
KNH1 150635Z 22006KT 07/M10 A3002 RMK A01 T00691100  RH  029%=      5-min Rain = 0
KNH1 150636Z 23007KT 07/M10 A3003 RMK A01 T00681099  RH  029%=      5-min Rain = 0
KNH1 150637Z 23007KT 07/M10 A3003 RMK A01 T00681100  RH  029%=      5-min Rain = 0
KNH1 150638Z 23007KT 07/M10 A3003 RMK A01 T00681100  RH  029%=      5-min Rain = 0
KNH1 150639Z 23008KT 07/M10 A3003 RMK A01 T00681100  RH  029%=      5-min Rain = 0
KNH1 150640Z 24008KT 07/M10 A3003 RMK A01 T00681099  RH  029%=      5-min Rain = 0
KNH1 150641Z 23008KT 07/M10 A3003 RMK A01 T00681099  RH  029%=      5-min Rain = 0
KNH1 150642Z 23008KT 07/M10 A3003 RMK A01 T00691099  RH  029%=      5-min Rain = 0
KNH1 150643Z 23008KT 07/M10 A3003 RMK A01 T00701099  RH  029%=      5-min Rain = 0
KNH1 150644Z 23008KT 07/M10 A3003 RMK A01 T00711099  RH  029%=      5-min Rain = 0
KNH1 150645Z 23008KT 07/M10 A3003 RMK A01 T00721098  RH  029%=      5-min Rain = 0
KNH1 150646Z 24008KT 07/M10 A3003 RMK A01 T00731098  RH  028%=      5-min Rain = 0
KNH1 150647Z 24009KT 07/M10 A3003 RMK A01 T00741099  RH  028%=      5-min Rain = 0
KNH1 150648Z 24009KT 07/M10 A3003 RMK A01 T00741100  RH  028%=      5-min Rain = 0
KNH1 150649Z 23008KT 08/M10 A3003 RMK A01 T00751100  RH  028%=      5-min Rain = 0
KNH1 150650Z 23009KT 08/M10 A3003 RMK A01 T00751100  RH  028%=      5-min Rain = 0
KNH1 150651Z 23009KT 08/M10 A3003 RMK A01 T00761099  RH  028%=      5-min Rain = 0
KNH1 150652Z 23008KT 08/M10 A3003 RMK A01 T00761099  RH  028%=      5-min Rain = 0
KNH1 150653Z 23009KT 08/M10 A3003 RMK A01 T00761098  RH  028%=      5-min Rain = 0
KNH1 150654Z 23009KT 08/M10 A3003 RMK A01 T00771097  RH  028%=      5-min Rain = 0
KNH1 150655Z 23008KT 08/M10 A3003 RMK A01 T00771098  RH  028%=      5-min Rain = 0
KNH1 150656Z 23009KT 08/M10 A3003 RMK A01 T00761099  RH  028%=      5-min Rain = 0
KNH1 150657Z 23009KT 08/M10 A3003 RMK A01 T00751099  RH  028%=      5-min Rain = 0
KNH1 150658Z 23009KT 08/M10 A3003 RMK A01 T00751098  RH  028%=      5-min Rain = 0
KNH1 150659Z 23009KT 08/M10 A3003 RMK A01 T00751098  RH  028%=      5-min Rain = 0
KNH1 150700Z 23009KT 07/M10 A3003 RMK A01 T00741098  RH  028%=      5-min Rain = 0
KNH1 150701Z 24009KT 07/M10 A3003 RMK A01 T00741098  RH  028%=      5-min Rain = 0
KNH1 150702Z 23009KT 07/M10 A3003 RMK A01 T00741098  RH  028%=      5-min Rain = 0
KNH1 150703Z 23009KT 08/M10 A3003 RMK A01 T00751097  RH  028%=      5-min Rain = 0
KNH1 150704Z 24009KT 08/M10 A3003 RMK A01 T00771096  RH  028%=      5-min Rain = 0
KNH1 150705Z 24008KT 08/M10 A3003 RMK A01 T00771098  RH  028%=      5-min Rain = 0
KNH1 150706Z 24008KT 08/M10 A3003 RMK A01 T00771098  RH  028%=      5-min Rain = 0
KNH1 150707Z 24008KT 08/M10 A3003 RMK A01 T00771098  RH  028%=      5-min Rain = 0
KNH1 150708Z 24008KT 08/M10 A3003 RMK A01 T00771098  RH  028%=      5-min Rain = 0
KNH1 150709Z 24008KT 08/M10 A3003 RMK A01 T00771097  RH  028%=      5-min Rain = 0
KNH1 150710Z 24008KT 08/M10 A3003 RMK A01 T00771097  RH  028%=      5-min Rain = 0
KNH1 150711Z 24009KT 08/M10 A3003 RMK A01 T00771097  RH  028%=      5-min Rain = 0
KNH1 150712Z 24009KT 08/M10 A3003 RMK A01 T00771097  RH  028%=      5-min Rain = 0
KNH1 150713Z 24009KT 08/M10 A3003 RMK A01 T00791095  RH  028%=      5-min Rain = 0
KNH1 150714Z 24009KT 08/M10 A3003 RMK A01 T00791095  RH  028%=      5-min Rain = 0
KNH1 150715Z 24009KT 08/M09 A3003 RMK A01 T00791094  RH  028%=      5-min Rain = 0
KNH1 150716Z 24009KT 08/M09 A3003 RMK A01 T00791094  RH  028%=      5-min Rain = 0
KNH1 150717Z 24009KT 08/M09 A3003 RMK A01 T00791094  RH  028%=      5-min Rain = 0
KNH1 150718Z 24008KT 08/M10 A3003 RMK A01 T00781096  RH  028%=      5-min Rain = 0
KNH1 150719Z 24008KT 08/M10 A3003 RMK A01 T00771096  RH  028%=      5-min Rain = 0
KNH1 150720Z 24008KT 08/M10 A3003 RMK A01 T00771096  RH  028%=      5-min Rain = 0
KNH1 150721Z 24009KT 08/M10 A3003 RMK A01 T00761096  RH  028%=      5-min Rain = 0
KNH1 150722Z 24009KT 08/M10 A3003 RMK A01 T00761096  RH  029%=      5-min Rain = 0
KNH1 150723Z 24008KT 08/M10 A3003 RMK A01 T00751096  RH  029%=      5-min Rain = 0
KNH1 150724Z 24008KT 07/M10 A3002 RMK A01 T00741096  RH  029%=      5-min Rain = 0
KNH1 150725Z 24008KT 07/M10 A3002 RMK A01 T00741096  RH  029%=      5-min Rain = 0
KNH1 150726Z 24008KT 07/M10 A3002 RMK A01 T00731096  RH  029%=      5-min Rain = 0
KNH1 150727Z 24008KT 07/M10 A3002 RMK A01 T00731096  RH  029%=      5-min Rain = 0
KNH1 150728Z 24008KT 07/M10 A3002 RMK A01 T00721096  RH  029%=      5-min Rain = 0
KNH1 150729Z 24008KT 07/M10 A3002 RMK A01 T00721096  RH  029%=      5-min Rain = 0
KNH1 150730Z 24008KT 07/M10 A3002 RMK A01 T00721097  RH  029%=      5-min Rain = 0
KNH1 150731Z 24008KT 07/M10 A3002 RMK A01 T00721097  RH  029%=      5-min Rain = 0
KNH1 150732Z 24007KT 07/M10 A3002 RMK A01 T00731097  RH  029%=      5-min Rain = 0
KNH1 150733Z 24007KT 07/M10 A3002 RMK A01 T00731097  RH  029%=      5-min Rain = 0
KNH1 150734Z 24007KT 07/M10 A3002 RMK A01 T00731097  RH  029%=      5-min Rain = 0
KNH1 150735Z 25008KT 07/M10 A3002 RMK A01 T00731097  RH  029%=      5-min Rain = 0
KNH1 150736Z 25008KT 07/M10 A3002 RMK A01 T00711097  RH  029%=      5-min Rain = 0
KNH1 150737Z 25007KT 07/M10 A3002 RMK A01 T00691097  RH  029%=      5-min Rain = 0
KNH1 150738Z 24007KT 07/M10 A3002 RMK A01 T00681097  RH  030%=      5-min Rain = 0
KNH1 150739Z 25007KT 07/M10 A3002 RMK A01 T00681096  RH  030%=      5-min Rain = 0
KNH1 150740Z 24007KT 07/M10 A3002 RMK A01 T00661097  RH  030%=      5-min Rain = 0
KNH1 150741Z 25007KT 07/M10 A3002 RMK A01 T00651096  RH  030%=      5-min Rain = 0
KNH1 150742Z 24007KT 07/M10 A3002 RMK A01 T00651096  RH  031%=      5-min Rain = 0
KNH1 150743Z 23007KT 06/M10 A3002 RMK A01 T00641096  RH  031%=      5-min Rain = 0
KNH1 150744Z 24008KT 06/M10 A3002 RMK A01 T00641096  RH  031%=      5-min Rain = 0
KNH1 150745Z 24007KT 06/M10 A3002 RMK A01 T00641097  RH  031%=      5-min Rain = 0
KNH1 150746Z 24007KT 06/M10 A3002 RMK A01 T00641097  RH  031%=      5-min Rain = 0
KNH1 150747Z 24007KT 06/M10 A3002 RMK A01 T00641096  RH  031%=      5-min Rain = 0
KNH1 150748Z 24007KT 06/M10 A3001 RMK A01 T00631097  RH  031%=      5-min Rain = 0
KNH1 150749Z 24007KT 06/M10 A3001 RMK A01 T00631097  RH  031%=      5-min Rain = 0
KNH1 150750Z 24007KT 06/M10 A3001 RMK A01 T00631097  RH  031%=      5-min Rain = 0
KNH1 150751Z 24008KT 06/M10 A3002 RMK A01 T00631097  RH  031%=      5-min Rain = 0
KNH1 150752Z 24008KT 06/M10 A3002 RMK A01 T00621097  RH  031%=      5-min Rain = 0
KNH1 150753Z 24008KT 06/M10 A3002 RMK A01 T00621097  RH  031%=      5-min Rain = 0
KNH1 150754Z 24009KT 06/M10 A3002 RMK A01 T00611097  RH  031%=      5-min Rain = 0
KNH1 150755Z 25009KT 06/M10 A3002 RMK A01 T00611096  RH  031%=      5-min Rain = 0
KNH1 150756Z 25008KT 06/M10 A3002 RMK A01 T00611096  RH  031%=      5-min Rain = 0
KNH1 150757Z 25008KT 06/M10 A3002 RMK A01 T00601096  RH  032%=      5-min Rain = 0
KNH1 150758Z 24008KT 06/M10 A3002 RMK A01 T00601096  RH  032%=      5-min Rain = 0
KNH1 150759Z 24008KT 06/M10 A3002 RMK A01 T00611096  RH  032%=      5-min Rain = 0
KNH1 150800Z 24007KT 06/M10 A3002 RMK A01 T00601096  RH  032%=      5-min Rain = 0
KNH1 150801Z 24007KT 06/M10 A3001 RMK A01 T00601096  RH  032%=      5-min Rain = 0
KNH1 150802Z 24008KT 06/M10 A3001 RMK A01 T00601096  RH  032%=      5-min Rain = 0
KNH1 150803Z 24007KT 06/M10 A3001 RMK A01 T00591097  RH  032%=      5-min Rain = 0
KNH1 150804Z 24007KT 06/M10 A3001 RMK A01 T00581097  RH  032%=      5-min Rain = 0
KNH1 150805Z 24007KT 06/M10 A3001 RMK A01 T00581097  RH  032%=      5-min Rain = 0
KNH1 150806Z 24007KT 06/M10 A3001 RMK A01 T00581097  RH  032%=      5-min Rain = 0
KNH1 150807Z 24007KT 06/M10 A3002 RMK A01 T00581096  RH  032%=      5-min Rain = 0
KNH1 150808Z 24008KT 06/M10 A3002 RMK A01 T00571095  RH  033%=      5-min Rain = 0
KNH1 150809Z 24008KT 06/M10 A3002 RMK A01 T00561095  RH  033%=      5-min Rain = 0
KNH1 150810Z 24008KT 06/M10 A3002 RMK A01 T00561095  RH  033%=      5-min Rain = 0
KNH1 150811Z 24008KT 06/M10 A3002 RMK A01 T00561096  RH  033%=      5-min Rain = 0
KNH1 150812Z 24008KT 06/M10 A3002 RMK A01 T00571096  RH  032%=      5-min Rain = 0
KNH1 150813Z 23008KT 06/M10 A3002 RMK A01 T00591097  RH  032%=      5-min Rain = 0
KNH1 150814Z 23007KT 06/M10 A3002 RMK A01 T00591097  RH  032%=      5-min Rain = 0
KNH1 150815Z 23008KT 06/M10 A3002 RMK A01 T00601096  RH  032%=      5-min Rain = 0
KNH1 150816Z 23007KT 06/M10 A3001 RMK A01 T00601096  RH  032%=      5-min Rain = 0
KNH1 150817Z 23007KT 06/M10 A3001 RMK A01 T00611096  RH  031%=      5-min Rain = 0
KNH1 150818Z 23007KT 06/M10 A3001 RMK A01 T00621095  RH  031%=      5-min Rain = 0
KNH1 150819Z 22007KT 06/M10 A3002 RMK A01 T00621096  RH  031%=      5-min Rain = 0
KNH1 150820Z 22008KT 06/M10 A3001 RMK A01 T00611096  RH  031%=      5-min Rain = 0
KNH1 150821Z 22008KT 06/M10 A3001 RMK A01 T00611095  RH  032%=      5-min Rain = 0
KNH1 150822Z 22008KT 06/M10 A3002 RMK A01 T00601095  RH  032%=      5-min Rain = 0
KNH1 150823Z 22008KT 06/M10 A3002 RMK A01 T00601095  RH  032%=      5-min Rain = 0
KNH1 150824Z 23008KT 06/M10 A3002 RMK A01 T00601095  RH  032%=      5-min Rain = 0
KNH1 150825Z 22008KT 06/M10 A3002 RMK A01 T00591095  RH  032%=      5-min Rain = 0
KNH1 150826Z 23008KT 06/M09 A3002 RMK A01 T00591094  RH  032%=      5-min Rain = 0
KNH1 150827Z 22008KT 06/M09 A3002 RMK A01 T00581094  RH  033%=      5-min Rain = 0
KNH1 150828Z 23008KT 06/M09 A3001 RMK A01 T00581094  RH  033%=      5-min Rain = 0
KNH1 150829Z 23008KT 06/M09 A3001 RMK A01 T00581094  RH  033%=      5-min Rain = 0
KNH1 150830Z 23008KT 06/M09 A3001 RMK A01 T00581093  RH  033%=      5-min Rain = 0
KNH1 150831Z 23008KT 06/M09 A3001 RMK A01 T00581094  RH  033%=      5-min Rain = 0
KNH1 150832Z 23008KT 06/M09 A3001 RMK A01 T00571094  RH  033%=      5-min Rain = 0
KNH1 150833Z 23008KT 06/M10 A3001 RMK A01 T00561095  RH  033%=      5-min Rain = 0
KNH1 150834Z 22008KT 06/M10 A3001 RMK A01 T00561095  RH  033%=      5-min Rain = 0
KNH1 150835Z 23008KT 06/M09 A3001 RMK A01 T00561094  RH  033%=      5-min Rain = 0
KNH1 150836Z 23008KT 06/M10 A3001 RMK A01 T00561095  RH  033%=      5-min Rain = 0
KNH1 150837Z 22008KT 06/M10 A3001 RMK A01 T00561095  RH  033%=      5-min Rain = 0
KNH1 150838Z 22009KT 06/M09 A3001 RMK A01 T00571094  RH  033%=      5-min Rain = 0
KNH1 150839Z 22009KT 06/M09 A3001 RMK A01 T00561094  RH  033%=      5-min Rain = 0
KNH1 150840Z 22009KT 06/M09 A3001 RMK A01 T00551094  RH  033%=      5-min Rain = 0
KNH1 150841Z 23009KT 06/M10 A3001 RMK A01 T00551095  RH  033%=      5-min Rain = 0
KNH1 150842Z 23009KT 06/M10 A3001 RMK A01 T00561095  RH  033%=      5-min Rain = 0
KNH1 150843Z 22008KT 06/M10 A3001 RMK A01 T00561095  RH  033%=      5-min Rain = 0
KNH1 150844Z 23008KT 06/M10 A30 RMK A01 T00571095  RH  033%=      5-min Rain = 0
KNH1 150845Z 23008KT 06/M10 A30 RMK A01 T00571095  RH  033%=      5-min Rain = 0
KNH1 150846Z 23008KT 06/M09 A30 RMK A01 T00571094  RH  033%=      5-min Rain = 0
KNH1 150847Z 23008KT 06/M10 A30 RMK A01 T00571095  RH  033%=      5-min Rain = 0
KNH1 150848Z 23008KT 06/M09 A30 RMK A01 T00571094  RH  033%=      5-min Rain = 0
KNH1 150849Z 23008KT 06/M09 A30 RMK A01 T00571094  RH  033%=      5-min Rain = 0
KNH1 150850Z 23008KT 06/M09 A30 RMK A01 T00561094  RH  033%=      5-min Rain = 0
KNH1 150851Z 23008KT 06/M09 A30 RMK A01 T00561094  RH  033%=      5-min Rain = 0
KNH1 150852Z 23009KT 06/M09 A30 RMK A01 T00561094  RH  033%=      5-min Rain = 0
KNH1 150853Z 23009KT 06/M09 A3001 RMK A01 T00561094  RH  033%=      5-min Rain = 0
KNH1 150854Z 23009KT 06/M09 A3001 RMK A01 T00561094  RH  033%=      5-min Rain = 0
KNH1 150855Z 23009KT 06/M09 A3001 RMK A01 T00561094  RH  033%=      5-min Rain = 0
KNH1 150856Z 23009KT 06/M10 A30 RMK A01 T00561095  RH  033%=      5-min Rain = 0
KNH1 150857Z 23009KT 06/M10 A30 RMK A01 T00571095  RH  033%=      5-min Rain = 0
KNH1 150858Z 23009KT 06/M10 A30 RMK A01 T00581095  RH  032%=      5-min Rain = 0
KNH1 150859Z 23008KT 06/M10 A30 RMK A01 T00601095  RH  032%=      5-min Rain = 0
KNH1 150900Z 23008KT 06/M10 A30 RMK A01 T00601096  RH  032%=      5-min Rain = 0
KNH1 150901Z 23008KT 06/M10 A30 RMK A01 T00601096  RH  032%=      5-min Rain = 0
KNH1 150902Z 23008KT 06/M10 A30 RMK A01 T00601096  RH  032%=      5-min Rain = 0
KNH1 150903Z 23008KT 06/M10 A30 RMK A01 T00591096  RH  032%=      5-min Rain = 0
KNH1 150904Z 23008KT 06/M10 A30 RMK A01 T00591095  RH  032%=      5-min Rain = 0
KNH1 150905Z 23008KT 06/M10 A30 RMK A01 T00591095  RH  032%=      5-min Rain = 0
KNH1 150906Z 24008KT 06/M10 A30 RMK A01 T00581096  RH  032%=      5-min Rain = 0
KNH1 150907Z 24008KT 06/M10 A30 RMK A01 T00581095  RH  032%=      5-min Rain = 0
KNH1 150908Z 23008KT 06/M10 A30 RMK A01 T00571096  RH  032%=      5-min Rain = 0
KNH1 150909Z 24008KT 06/M10 A30 RMK A01 T00581096  RH  032%=      5-min Rain = 0
KNH1 150910Z 24008KT 06/M10 A30 RMK A01 T00591096  RH  032%=      5-min Rain = 0
KNH1 150911Z 23008KT 06/M10 A30 RMK A01 T00591097  RH  032%=      5-min Rain = 0
KNH1 150912Z 22008KT 06/M10 A30 RMK A01 T00601097  RH  031%=      5-min Rain = 0
KNH1 150913Z 23007KT 06/M10 A30 RMK A01 T00611097  RH  031%=      5-min Rain = 0
KNH1 150914Z 24009KT 06/M10 A30 RMK A01 T00611097  RH  031%=      5-min Rain = 0
KNH1 150915Z 24009KT 06/M10 A30 RMK A01 T00611096  RH  031%=      5-min Rain = 0
KNH1 150916Z 24008KT 06/M10 A30 RMK A01 T00601096  RH  031%=      5-min Rain = 0
KNH1 150917Z 23008KT 06/M10 A3001 RMK A01 T00601096  RH  032%=      5-min Rain = 0
KNH1 150918Z 24008KT 06/M10 A3001 RMK A01 T00601096  RH  032%=      5-min Rain = 0
KNH1 150919Z 24009KT 06/M10 A3001 RMK A01 T00591097  RH  032%=      5-min Rain = 0
KNH1 150920Z 24009KT 06/M10 A3001 RMK A01 T00581097  RH  032%=      5-min Rain = 0
KNH1 150921Z 25010KT 06/M10 A3001 RMK A01 T00581097  RH  032%=      5-min Rain = 0
KNH1 150922Z 25010KT 06/M10 A3001 RMK A01 T00581097  RH  032%=      5-min Rain = 0
KNH1 150923Z 25009KT 06/M10 A3001 RMK A01 T00581097  RH  032%=      5-min Rain = 0
KNH1 150924Z 25009KT 06/M10 A3001 RMK A01 T00591097  RH  032%=      5-min Rain = 0
KNH1 150925Z 25009KT 06/M10 A3001 RMK A01 T00601096  RH  032%=      5-min Rain = 0
KNH1 150926Z 25009KT 06/M10 A3001 RMK A01 T00591097  RH  032%=      5-min Rain = 0
KNH1 150927Z 25009KT 06/M10 A3001 RMK A01 T00601096  RH  032%=      5-min Rain = 0
KNH1 150928Z 25009KT 06/M10 A3001 RMK A01 T00611096  RH  031%=      5-min Rain = 0
KNH1 150929Z 25008KT 06/M10 A3001 RMK A01 T00611096  RH  031%=      5-min Rain = 0
KNH1 150930Z 25008KT 06/M10 A3001 RMK A01 T00611096  RH  031%=      5-min Rain = 0
KNH1 150931Z 25007KT 06/M10 A3001 RMK A01 T00611096  RH  031%=      5-min Rain = 0
KNH1 150932Z 25008KT 06/M10 A3001 RMK A01 T00601096  RH  032%=      5-min Rain = 0
KNH1 150933Z 25007KT 06/M10 A3001 RMK A01 T00601096  RH  032%=      5-min Rain = 0
KNH1 150934Z 25007KT 06/M10 A3001 RMK A01 T00591096  RH  032%=      5-min Rain = 0
KNH1 150935Z 25008KT 06/M10 A3001 RMK A01 T00581095  RH  032%=      5-min Rain = 0
KNH1 150936Z 25008KT 06/M10 A3001 RMK A01 T00571095  RH  033%=      5-min Rain = 0
KNH1 150937Z 26008KT 06/M09 A3001 RMK A01 T00561094  RH  033%=      5-min Rain = 0
KNH1 150938Z 25007KT 06/M09 A3001 RMK A01 T00561094  RH  033%=      5-min Rain = 0
KNH1 150939Z 25008KT 06/M09 A3001 RMK A01 T00571094  RH  033%=      5-min Rain = 0
KNH1 150940Z 26008KT 06/M09 A3001 RMK A01 T00591093  RH  033%=      5-min Rain = 0
KNH1 150941Z 26008KT 06/M09 A3001 RMK A01 T00611093  RH  032%=      5-min Rain = 0
KNH1 150942Z 26008KT 06/M09 A3001 RMK A01 T00621093  RH  032%=      5-min Rain = 0
KNH1 150943Z 26008KT 06/M09 A3001 RMK A01 T00631092  RH  032%=      5-min Rain = 0
KNH1 150944Z 26008KT 06/M09 A3001 RMK A01 T00631092  RH  032%=      5-min Rain = 0
KNH1 150945Z 26007KT 06/M09 A3001 RMK A01 T00631091  RH  032%=      5-min Rain = 0
KNH1 150946Z 26007KT 06/M09 A3001 RMK A01 T00621091  RH  032%=      5-min Rain = 0
KNH1 150947Z 26007KT 06/M09 A3001 RMK A01 T00621090  RH  033%=      5-min Rain = 0
KNH1 150948Z 26007KT 06/M09 A3001 RMK A01 T00621090  RH  033%=      5-min Rain = 0
KNH1 150949Z 26008KT 06/M09 A3001 RMK A01 T00631091  RH  032%=      5-min Rain = 0
KNH1 150950Z 26008KT 06/M09 A3001 RMK A01 T00631091  RH  032%=      5-min Rain = 0
KNH1 150951Z 26008KT 06/M09 A3001 RMK A01 T00631091  RH  032%=      5-min Rain = 0
KNH1 150952Z 26008KT 06/M09 A3001 RMK A01 T00641091  RH  032%=      5-min Rain = 0
KNH1 150953Z 26009KT 06/M09 A3001 RMK A01 T00641092  RH  032%=      5-min Rain = 0
KNH1 150954Z 26008KT 06/M09 A3002 RMK A01 T00641092  RH  032%=      5-min Rain = 0
KNH1 150955Z 26008KT 06/M09 A3002 RMK A01 T00641092  RH  032%=      5-min Rain = 0
KNH1 150956Z 26008KT 06/M09 A3002 RMK A01 T00641092  RH  032%=      5-min Rain = 0
KNH1 150957Z 26007KT 06/M09 A3002 RMK A01 T00641092  RH  032%=      5-min Rain = 0
KNH1 150958Z 26007KT 06/M09 A3001 RMK A01 T00641092  RH  032%=      5-min Rain = 0
KNH1 150959Z 26007KT 07/M09 A3001 RMK A01 T00651092  RH  032%=      5-min Rain = 0
KNH1 151000Z 26007KT 06/M09 A3002 RMK A01 T00641093  RH  032%=      5-min Rain = 0
KNH1 151001Z 26006KT 06/M09 A3002 RMK A01 T00631092  RH  032%=      5-min Rain = 0
KNH1 151002Z 26006KT 06/M09 A3002 RMK A01 T00621091  RH  033%=      5-min Rain = 0
KNH1 151003Z 26006KT 06/M09 A3002 RMK A01 T00611091  RH  033%=      5-min Rain = 0
KNH1 151004Z 26007KT 06/M09 A3002 RMK A01 T00611090  RH  033%=      5-min Rain = 0
KNH1 151005Z 27006KT 06/M09 A3002 RMK A01 T00601090  RH  033%=      5-min Rain = 0
KNH1 151006Z 27007KT 06/M09 A3002 RMK A01 T00601091  RH  033%=      5-min Rain = 0
KNH1 151007Z 27007KT 06/M09 A3002 RMK A01 T00611093  RH  032%=      5-min Rain = 0
KNH1 151008Z 27006KT 06/M09 A3002 RMK A01 T00611092  RH  032%=      5-min Rain = 0
KNH1 151009Z 28006KT 06/M09 A3002 RMK A01 T00611092  RH  032%=      5-min Rain = 0
KNH1 151010Z 28006KT 06/M09 A3002 RMK A01 T00621091  RH  032%=      5-min Rain = 0
KNH1 151011Z 29006KT 06/M09 A3002 RMK A01 T00621091  RH  033%=      5-min Rain = 0
KNH1 151012Z 30005KT 06/M09 A3002 RMK A01 T00621091  RH  032%=      5-min Rain = 0
KNH1 151013Z 34004KT 06/M09 A3002 RMK A01 T00621093  RH  032%=      5-min Rain = 0
KNH1 151014Z 34006KT 06/M09 A3002 RMK A01 T00621091  RH  032%=      5-min Rain = 0
KNH1 151015Z 35006KT 06/M09 A3002 RMK A01 T00591091  RH  033%=      5-min Rain = 0
KNH1 151016Z 33006KT 06/M09 A3002 RMK A01 T00551091  RH  034%=      5-min Rain = 0
KNH1 151017Z 32004KT 05/M09 A3002 RMK A01 T00531092  RH  034%=      5-min Rain = 0
KNH1 151018Z 30006KT 05/M09 A3002 RMK A01 T00531093  RH  034%=      5-min Rain = 0
KNH1 151019Z 29007KT 06/M09 A3002 RMK A01 T00571093  RH  033%=      5-min Rain = 0
KNH1 151020Z 28008KT 06/M09 A3002 RMK A01 T00631093  RH  032%=      5-min Rain = 0
KNH1 151021Z 27009KT 07/M09 A3002 RMK A01 T00671094  RH  031%=      5-min Rain = 0
KNH1 151022Z 27010KT 07/M10 A3002 RMK A01 T00701096  RH  030%=      5-min Rain = 0
KNH1 151023Z 27009KT 07/M10 A3002 RMK A01 T00721096  RH  029%=      5-min Rain = 0
KNH1 151024Z 26009KT 07/M10 A3002 RMK A01 T00731096  RH  029%=      5-min Rain = 0
KNH1 151025Z 26009KT 07/M10 A3002 RMK A01 T00731097  RH  029%=      5-min Rain = 0
KNH1 151026Z 26008KT 07/M10 A3002 RMK A01 T00731097  RH  029%=      5-min Rain = 0
KNH1 151027Z 26008KT 07/M10 A3002 RMK A01 T00721097  RH  029%=      5-min Rain = 0
KNH1 151028Z 27008KT 07/M10 A3002 RMK A01 T00701097  RH  029%=      5-min Rain = 0
KNH1 151029Z 28008KT 07/M10 A3002 RMK A01 T00681096  RH  030%=      5-min Rain = 0
KNH1 151030Z 29007KT 07/M10 A3002 RMK A01 T00681096  RH  030%=      5-min Rain = 0
KNH1 151031Z 30007KT 07/M10 A3002 RMK A01 T00681095  RH  030%=      5-min Rain = 0
KNH1 151032Z 32005KT 07/M09 A3002 RMK A01 T00671094  RH  031%=      5-min Rain = 0
KNH1 151033Z 34006KT 07/M09 A3002 RMK A01 T00651092  RH  031%=      5-min Rain = 0
KNH1 151034Z 34006KT 06/M09 A3002 RMK A01 T00621090  RH  033%=      5-min Rain = 0
KNH1 151035Z 33006KT 06/M09 A3002 RMK A01 T00571090  RH  034%=      5-min Rain = 0
KNH1 151036Z 33005KT 05/M09 A3002 RMK A01 T00531091  RH  034%=      5-min Rain = 0
KNH1 151037Z 32003KT 05/M09 A3002 RMK A01 T00521092  RH  034%=      5-min Rain = 0
KNH1 151038Z 32004KT 05/M09 A3002 RMK A01 T00521092  RH  035%=      5-min Rain = 0
KNH1 151039Z 32004KT 05/M09 A3002 RMK A01 T00521092  RH  034%=      5-min Rain = 0
KNH1 151040Z 31006KT 05/M09 A3002 RMK A01 T00531092  RH  034%=      5-min Rain = 0
KNH1 151041Z 31007KT 05/M09 A3002 RMK A01 T00541093  RH  034%=      5-min Rain = 0
KNH1 151042Z 30005KT 05/M09 A3002 RMK A01 T00541093  RH  034%=      5-min Rain = 0
KNH1 151043Z 31005KT 05/M09 A3002 RMK A01 T00541092  RH  034%=      5-min Rain = 0
KNH1 151044Z 31005KT 05/M09 A3002 RMK A01 T00521093  RH  034%=      5-min Rain = 0
KNH1 151045Z 30005KT 05/M09 A3002 RMK A01 T00511093  RH  035%=      5-min Rain = 0
KNH1 151046Z 29005KT 05/M09 A3002 RMK A01 T00501092  RH  035%=      5-min Rain = 0
KNH1 151047Z 30005KT 05/M09 A3002 RMK A01 T00471092  RH  036%=      5-min Rain = 0
KNH1 151048Z 30005KT 05/M09 A3002 RMK A01 T00451091  RH  037%=      5-min Rain = 0
KNH1 151049Z 30005KT 04/M09 A3002 RMK A01 T00441091  RH  037%=      5-min Rain = 0
KNH1 151050Z 30005KT 04/M09 A3002 RMK A01 T00441092  RH  037%=      5-min Rain = 0
KNH1 151051Z 29005KT 04/M09 A3002 RMK A01 T00441092  RH  037%=      5-min Rain = 0
KNH1 151052Z 29005KT 04/M09 A3002 RMK A01 T00441092  RH  037%=      5-min Rain = 0
KNH1 151053Z 29005KT 04/M09 A3002 RMK A01 T00431092  RH  037%=      5-min Rain = 0
KNH1 151054Z 30005KT 04/M09 A3002 RMK A01 T00411090  RH  038%=      5-min Rain = 0
KNH1 151055Z 30005KT 04/M09 A3002 RMK A01 T00391091  RH  038%=      5-min Rain = 0
KNH1 151056Z 30004KT 04/M09 A3002 RMK A01 T00411092  RH  037%=      5-min Rain = 0
KNH1 151057Z 30004KT 04/M09 A3002 RMK A01 T00421093  RH  037%=      5-min Rain = 0
KNH1 151058Z 31005KT 04/M09 A3002 RMK A01 T00421092  RH  037%=      5-min Rain = 0
KNH1 151059Z 32003KT 04/M09 A3002 RMK A01 T00411092  RH  037%=      5-min Rain = 0
KNH1 151100Z 30004KT 04/M09 A3002 RMK A01 T00421092  RH  037%=      5-min Rain = 0
KNH1 151101Z 30004KT 04/M09 A3002 RMK A01 T00421092  RH  037%=      5-min Rain = 0
KNH1 151102Z 31004KT 04/M09 A3002 RMK A01 T00401091  RH  038%=      5-min Rain = 0
KNH1 151103Z 31004KT 04/M09 A3002 RMK A01 T00391092  RH  038%=      5-min Rain = 0
KNH1 151104Z 32003KT 04/M09 A3002 RMK A01 T00401093  RH  037%=      5-min Rain = 0
KNH1 151105Z 31005KT 04/M09 A3002 RMK A01 T00401092  RH  037%=      5-min Rain = 0
KNH1 151106Z 31005KT 04/M09 A3002 RMK A01 T00401092  RH  037%=      5-min Rain = 0
KNH1 151107Z 32004KT 04/M09 A3002 RMK A01 T00411092  RH  037%=      5-min Rain = 0
KNH1 151108Z 31004KT 04/M09 A3002 RMK A01 T00411093  RH  037%=      5-min Rain = 0
KNH1 151109Z 30005KT 04/M09 A3002 RMK A01 T00431093  RH  036%=      5-min Rain = 0
KNH1 151110Z 30006KT 04/M09 A3002 RMK A01 T00421092  RH  037%=      5-min Rain = 0
KNH1 151111Z 29005KT 04/M09 A3002 RMK A01 T00391090  RH  038%=      5-min Rain = 0
KNH1 151112Z 29006KT 04/M09 A3002 RMK A01 T00361089  RH  039%=      5-min Rain = 0
KNH1 151113Z 28007KT 04/M09 A3002 RMK A01 T00361090  RH  039%=      5-min Rain = 0
KNH1 151114Z 28007KT 04/M09 A3002 RMK A01 T00361090  RH  039%=      5-min Rain = 0
KNH1 151115Z 28007KT 04/M09 A3002 RMK A01 T00391091  RH  038%=      5-min Rain = 0
KNH1 151116Z 28008KT 04/M09 A3002 RMK A01 T00401092  RH  038%=      5-min Rain = 0
KNH1 151117Z 29007KT 04/M09 A3002 RMK A01 T00391091  RH  038%=      5-min Rain = 0
KNH1 151118Z 30006KT 04/M09 A3002 RMK A01 T00401091  RH  038%=      5-min Rain = 0
KNH1 151119Z 32003KT 04/M09 A3002 RMK A01 T00421092  RH  037%=      5-min Rain = 0
KNH1 151120Z 30003KT 04/M09 A3002 RMK A01 T00441093  RH  036%=      5-min Rain = 0
KNH1 151121Z 31004KT 05/M09 A3002 RMK A01 T00451092  RH  036%=      5-min Rain = 0
KNH1 151122Z 30006KT 04/M09 A3002 RMK A01 T00441092  RH  036%=      5-min Rain = 0
KNH1 151123Z 31006KT 04/M09 A3002 RMK A01 T00441092  RH  037%=      5-min Rain = 0
KNH1 151124Z 32004KT 04/M09 A3002 RMK A01 T00441093  RH  036%=      5-min Rain = 0
KNH1 151125Z 33004KT 05/M09 A3002 RMK A01 T00451093  RH  036%=      5-min Rain = 0
KNH1 151126Z 33005KT 05/M09 A3002 RMK A01 T00451092  RH  036%=      5-min Rain = 0
KNH1 151127Z 33006KT 04/M09 A3002 RMK A01 T00441092  RH  037%=      5-min Rain = 0
KNH1 151128Z 31006KT 04/M09 A3002 RMK A01 T00441091  RH  037%=      5-min Rain = 0
KNH1 151129Z 30008KT 04/M09 A3002 RMK A01 T00441091  RH  037%=      5-min Rain = 0
KNH1 151130Z 31007KT 04/M09 A3002 RMK A01 T00441092  RH  036%=      5-min Rain = 0
KNH1 151131Z 31007KT 05/M09 A3002 RMK A01 T00461094  RH  035%=      5-min Rain = 0
KNH1 151132Z 32006KT 05/M09 A3002 RMK A01 T00491094  RH  035%=      5-min Rain = 0
KNH1 151133Z 31006KT 05/M10 A3002 RMK A01 T00501095  RH  034%=      5-min Rain = 0
KNH1 151134Z 32005KT 05/M10 A3002 RMK A01 T00511096  RH  034%=      5-min Rain = 0
KNH1 151135Z 32005KT 05/M10 A3002 RMK A01 T00511096  RH  034%=      5-min Rain = 0
KNH1 151136Z 32005KT 05/M09 A3002 RMK A01 T00511094  RH  034%=      5-min Rain = 0
KNH1 151137Z 32006KT 05/M09 A3002 RMK A01 T00501094  RH  035%=      5-min Rain = 0
KNH1 151138Z 34007KT 05/M09 A3002 RMK A01 T00501094  RH  035%=      5-min Rain = 0
KNH1 151139Z 31005KT 05/M09 A3002 RMK A01 T00481093  RH  035%=      5-min Rain = 0
KNH1 151140Z 31004KT 05/M09 A3002 RMK A01 T00471093  RH  035%=      5-min Rain = 0
KNH1 151141Z 31005KT 05/M09 A3002 RMK A01 T00461091  RH  036%=      5-min Rain = 0
KNH1 151142Z 31005KT 05/M09 A3002 RMK A01 T00461091  RH  036%=      5-min Rain = 0
KNH1 151143Z 32004KT 05/M09 A3002 RMK A01 T00451091  RH  036%=      5-min Rain = 0
KNH1 151144Z 32004KT 05/M09 A3002 RMK A01 T00461094  RH  036%=      5-min Rain = 0
KNH1 151145Z 32004KT 05/M09 A3002 RMK A01 T00481094  RH  035%=      5-min Rain = 0
KNH1 151146Z 32005KT 05/M09 A3002 RMK A01 T00481093  RH  035%=      5-min Rain = 0
KNH1 151147Z 31005KT 05/M09 A3002 RMK A01 T00481093  RH  035%=      5-min Rain = 0
KNH1 151148Z 32006KT 05/M09 A3002 RMK A01 T00491093  RH  035%=      5-min Rain = 0
KNH1 151149Z 33005KT 05/M09 A3002 RMK A01 T00491093  RH  035%=      5-min Rain = 0
KNH1 151150Z 30003KT 05/M09 A3002 RMK A01 T00501092  RH  035%=      5-min Rain = 0
KNH1 151151Z 31005KT 05/M09 A3002 RMK A01 T00491091  RH  036%=      5-min Rain = 0
KNH1 151152Z 30006KT 05/M09 A3002 RMK A01 T00481091  RH  036%=      5-min Rain = 0
KNH1 151153Z 30007KT 05/M09 A3002 RMK A01 T00481092  RH  036%=      5-min Rain = 0
KNH1 151154Z 32005KT 05/M09 A3002 RMK A01 T00491093  RH  035%=      5-min Rain = 0
KNH1 151155Z 31004KT 05/M10 A3002 RMK A01 T00501095  RH  034%=      5-min Rain = 0
KNH1 151156Z 31005KT 05/M10 A3002 RMK A01 T00511095  RH  034%=      5-min Rain = 0
KNH1 151157Z 31006KT 05/M10 A3002 RMK A01 T00511095  RH  034%=      5-min Rain = 0
KNH1 151158Z 30006KT 05/M10 A3002 RMK A01 T00521095  RH  034%=      5-min Rain = 0
KNH1 151159Z 30006KT 05/M10 A3002 RMK A01 T00521096  RH  034%=      5-min Rain = 0
KNH1 151200Z 31004KT 05/M09 A3002 RMK A01 T00521094  RH  034%=      5-min Rain = 0
KNH1 151201Z 30005KT 05/M09 A3002 RMK A01 T00501092  RH  035%=      5-min Rain = 0
KNH1 151202Z 29005KT 05/M09 A3002 RMK A01 T00481092  RH  036%=      5-min Rain = 0
KNH1 151203Z 29005KT 05/M09 A3002 RMK A01 T00471093  RH  036%=      5-min Rain = 0
KNH1 151204Z 30005KT 05/M09 A3002 RMK A01 T00461092  RH  036%=      5-min Rain = 0
KNH1 151205Z 29005KT 04/M09 A3002 RMK A01 T00441091  RH  037%=      5-min Rain = 0
KNH1 151206Z 30005KT 04/M09 A3002 RMK A01 T00441091  RH  037%=      5-min Rain = 0
KNH1 151207Z 30005KT 04/M09 A3002 RMK A01 T00431091  RH  037%=      5-min Rain = 0
KNH1 151208Z 30005KT 04/M09 A3002 RMK A01 T00431091  RH  037%=      5-min Rain = 0
KNH1 151209Z 30005KT 04/M09 A3002 RMK A01 T00431090  RH  037%=      5-min Rain = 0
KNH1 151210Z 30006KT 04/M09 A3002 RMK A01 T00421092  RH  037%=      5-min Rain = 0
KNH1 151211Z 30006KT 04/M09 A3002 RMK A01 T00421092  RH  037%=      5-min Rain = 0
KNH1 151212Z 29006KT 04/M09 A3002 RMK A01 T00421091  RH  037%=      5-min Rain = 0
KNH1 151213Z 29006KT 04/M09 A3002 RMK A01 T00421091  RH  037%=      5-min Rain = 0
KNH1 151214Z 29006KT 04/M09 A3002 RMK A01 T00421091  RH  037%=      5-min Rain = 0
KNH1 151215Z 29006KT 04/M09 A3002 RMK A01 T00411091  RH  037%=      5-min Rain = 0
KNH1 151216Z 29006KT 04/M09 A3003 RMK A01 T00421093  RH  037%=      5-min Rain = 0
KNH1 151217Z 29007KT 04/M09 A3003 RMK A01 T00441093  RH  036%=      5-min Rain = 0
KNH1 151218Z 29006KT 04/M09 A3003 RMK A01 T00441093  RH  036%=      5-min Rain = 0
KNH1 151219Z 29005KT 04/M09 A3003 RMK A01 T00441092  RH  037%=      5-min Rain = 0
KNH1 151220Z 29005KT 04/M09 A3003 RMK A01 T00441091  RH  037%=      5-min Rain = 0
KNH1 151221Z 29005KT 04/M09 A3003 RMK A01 T00441091  RH  037%=      5-min Rain = 0
KNH1 151222Z 29005KT 04/M09 A3003 RMK A01 T00441091  RH  037%=      5-min Rain = 0
KNH1 151223Z 29005KT 04/M09 A3003 RMK A01 T00431090  RH  037%=      5-min Rain = 0
KNH1 151224Z 29005KT 04/M09 A3003 RMK A01 T00421090  RH  037%=      5-min Rain = 0
KNH1 151225Z 30005KT 04/M09 A3003 RMK A01 T00421091  RH  037%=      5-min Rain = 0
KNH1 151226Z 30005KT 04/M09 A3003 RMK A01 T00431092  RH  037%=      5-min Rain = 0
KNH1 151227Z 29005KT 04/M09 A3003 RMK A01 T00441092  RH  037%=      5-min Rain = 0
KNH1 151228Z 29005KT 04/M09 A3003 RMK A01 T00441091  RH  037%=      5-min Rain = 0
KNH1 151229Z 29005KT 04/M09 A3003 RMK A01 T00441091  RH  037%=      5-min Rain = 0
KNH1 151230Z 30005KT 04/M09 A3003 RMK A01 T00441090  RH  037%=      5-min Rain = 0
KNH1 151231Z 30005KT 04/M09 A3003 RMK A01 T00441092  RH  036%=      5-min Rain = 0
KNH1 151232Z 30005KT 05/M10 A3003 RMK A01 T00461095  RH  035%=      5-min Rain = 0
KNH1 151233Z 29005KT 05/M09 A3003 RMK A01 T00481094  RH  035%=      5-min Rain = 0
KNH1 151234Z 29006KT 05/M09 A3003 RMK A01 T00491094  RH  035%=      5-min Rain = 0
KNH1 151235Z 29006KT 05/M10 A3003 RMK A01 T00501095  RH  034%=      5-min Rain = 0
KNH1 151236Z 30005KT 05/M09 A3003 RMK A01 T00511093  RH  035%=      5-min Rain = 0
KNH1 151237Z 30005KT 05/M09 A3003 RMK A01 T00501091  RH  035%=      5-min Rain = 0
KNH1 151238Z 30004KT 05/M09 A3003 RMK A01 T00491094  RH  035%=      5-min Rain = 0
KNH1 151239Z 31004KT 05/M10 A3003 RMK A01 T00501096  RH  034%=      5-min Rain = 0
KNH1 151240Z 31004KT 05/M10 A3003 RMK A01 T00511097  RH  033%=      5-min Rain = 0
KNH1 151241Z 30004KT 05/M10 A3003 RMK A01 T00521096  RH  033%=      5-min Rain = 0
KNH1 151242Z 30004KT 05/M10 A3003 RMK A01 T00521096  RH  033%=      5-min Rain = 0
KNH1 151243Z 29004KT 05/M09 A3003 RMK A01 T00511094  RH  034%=      5-min Rain = 0
KNH1 151244Z 28004KT 05/M09 A3003 RMK A01 T00491094  RH  035%=      5-min Rain = 0
KNH1 151245Z 28004KT 05/M09 A3003 RMK A01 T00481094  RH  035%=      5-min Rain = 0
KNH1 151246Z 28004KT 05/M09 A3004 RMK A01 T00471094  RH  035%=      5-min Rain = 0
KNH1 151247Z 29005KT 05/M09 A3004 RMK A01 T00461093  RH  036%=      5-min Rain = 0
KNH1 151248Z 29005KT 05/M09 A3004 RMK A01 T00451092  RH  036%=      5-min Rain = 0
KNH1 151249Z 29005KT 04/M09 A3004 RMK A01 T00431089  RH  038%=      5-min Rain = 0
KNH1 151250Z 29005KT 04/M09 A3004 RMK A01 T00401089  RH  038%=      5-min Rain = 0
KNH1 151251Z 29005KT 04/M09 A3004 RMK A01 T00401089  RH  038%=      5-min Rain = 0
KNH1 151252Z 29005KT 04/M09 A3004 RMK A01 T00401090  RH  038%=      5-min Rain = 0
KNH1 151253Z 28005KT 04/M09 A3004 RMK A01 T00401090  RH  038%=      5-min Rain = 0
KNH1 151254Z 28006KT 04/M09 A3004 RMK A01 T00401090  RH  038%=      5-min Rain = 0
KNH1 151255Z 29006KT 04/M09 A3004 RMK A01 T00411089  RH  038%=      5-min Rain = 0
KNH1 151256Z 29005KT 04/M09 A3004 RMK A01 T00411088  RH  039%=      5-min Rain = 0
KNH1 151257Z 29005KT 04/M09 A3004 RMK A01 T00411087  RH  039%=      5-min Rain = 0
KNH1 151258Z 29005KT 04/M09 A3004 RMK A01 T00401089  RH  038%=      5-min Rain = 0
KNH1 151259Z 29006KT 04/M09 A3004 RMK A01 T00411087  RH  039%=      5-min Rain = 0
KNH1 151300Z 30005KT 04/M08 A3004 RMK A01 T00401084  RH  040%=      5-min Rain = 0
KNH1 151301Z 30005KT 04/M09 A3004 RMK A01 T00401087  RH  039%=      5-min Rain = 0
KNH1 151302Z 31006KT 04/M09 A3004 RMK A01 T00421091  RH  037%=      5-min Rain = 0
KNH1 151303Z 31005KT 05/M09 A3004 RMK A01 T00461092  RH  036%=      5-min Rain = 0
KNH1 151304Z 30005KT 05/M09 A3004 RMK A01 T00471091  RH  036%=      5-min Rain = 0
KNH1 151305Z 30005KT 05/M09 A3004 RMK A01 T00471090  RH  036%=      5-min Rain = 0
KNH1 151306Z 30005KT 05/M09 A3004 RMK A01 T00461089  RH  037%=      5-min Rain = 0
KNH1 151307Z 30005KT 05/M09 A3004 RMK A01 T00461089  RH  037%=      5-min Rain = 0
KNH1 151308Z 30005KT 05/M09 A3004 RMK A01 T00451089  RH  037%=      5-min Rain = 0
KNH1 151309Z 30005KT 05/M09 A3004 RMK A01 T00451089  RH  037%=      5-min Rain = 0
KNH1 151310Z 30005KT 05/M09 A3004 RMK A01 T00451091  RH  037%=      5-min Rain = 0
KNH1 151311Z 29004KT 05/M09 A3004 RMK A01 T00451089  RH  037%=      5-min Rain = 0
KNH1 151312Z 29004KT 04/M09 A3004 RMK A01 T00441088  RH  038%=      5-min Rain = 0
KNH1 151313Z 29004KT 04/M09 A3004 RMK A01 T00431088  RH  038%=      5-min Rain = 0
KNH1 151314Z 29004KT 04/M09 A3004 RMK A01 T00411088  RH  039%=      5-min Rain = 0
KNH1 151315Z 29004KT 04/M09 A3004 RMK A01 T00401087  RH  039%=      5-min Rain = 0
KNH1 151316Z 29004KT 04/M09 A3004 RMK A01 T00401087  RH  039%=      5-min Rain = 0
KNH1 151317Z 29004KT 04/M09 A3004 RMK A01 T00391087  RH  039%=      5-min Rain = 0
KNH1 151318Z 29005KT 04/M09 A3004 RMK A01 T00391088  RH  039%=      5-min Rain = 0
KNH1 151319Z 30005KT 04/M09 A3004 RMK A01 T00391088  RH  039%=      5-min Rain = 0
KNH1 151320Z 30005KT 04/M09 A3004 RMK A01 T00381086  RH  040%=      5-min Rain = 0
KNH1 151321Z 29005KT 04/M09 A3004 RMK A01 T00381087  RH  040%=      5-min Rain = 0
KNH1 151322Z 29005KT 04/M09 A3004 RMK A01 T00391086  RH  040%=      5-min Rain = 0
KNH1 151323Z 28005KT 04/M09 A3004 RMK A01 T00391087  RH  040%=      5-min Rain = 0
KNH1 151324Z 28005KT 04/M09 A3005 RMK A01 T00401088  RH  039%=      5-min Rain = 0
KNH1 151325Z 28005KT 04/M09 A3005 RMK A01 T00411088  RH  039%=      5-min Rain = 0
KNH1 151326Z 29005KT 04/M09 A3005 RMK A01 T00411087  RH  039%=      5-min Rain = 0
KNH1 151327Z 30005KT 04/M09 A3005 RMK A01 T00401087  RH  039%=      5-min Rain = 0
KNH1 151328Z 30005KT 04/M09 A3005 RMK A01 T00401086  RH  040%=      5-min Rain = 0
KNH1 151329Z 29006KT 04/M09 A3005 RMK A01 T00401086  RH  039%=      5-min Rain = 0
KNH1 151330Z 29005KT 04/M09 A3005 RMK A01 T00411086  RH  039%=      5-min Rain = 0
KNH1 151331Z 30005KT 04/M09 A3005 RMK A01 T00421085  RH  039%=      5-min Rain = 0
KNH1 151332Z 30006KT 04/M09 A3005 RMK A01 T00421086  RH  039%=      5-min Rain = 0
KNH1 151333Z 30006KT 04/M09 A3005 RMK A01 T00441088  RH  038%=      5-min Rain = 0
KNH1 151334Z 31005KT 05/M09 A3005 RMK A01 T00471089  RH  037%=      5-min Rain = 0
KNH1 151335Z 32004KT 05/M09 A3005 RMK A01 T00501090  RH  036%=      5-min Rain = 0
KNH1 151336Z 32005KT 05/M09 A3005 RMK A01 T00511091  RH  035%=      5-min Rain = 0
KNH1 151337Z 33005KT 05/M09 A3005 RMK A01 T00511090  RH  035%=      5-min Rain = 0
KNH1 151338Z 32006KT 05/M09 A3005 RMK A01 T00501089  RH  036%=      5-min Rain = 0
KNH1 151339Z 32006KT 05/M09 A3005 RMK A01 T00491090  RH  036%=      5-min Rain = 0
KNH1 151340Z 32005KT 05/M09 A3005 RMK A01 T00501090  RH  036%=      5-min Rain = 0
KNH1 151341Z 31004KT 05/M09 A3005 RMK A01 T00511090  RH  035%=      5-min Rain = 0
KNH1 151342Z 30005KT 05/M09 A3005 RMK A01 T00511088  RH  036%=      5-min Rain = 0
KNH1 151343Z 31005KT 05/M09 A3005 RMK A01 T00491085  RH  037%=      5-min Rain = 0
KNH1 151344Z 32004KT 05/M09 A3006 RMK A01 T00471087  RH  037%=      5-min Rain = 0
KNH1 151345Z 31004KT 05/M09 A3006 RMK A01 T00481088  RH  037%=      5-min Rain = 0
KNH1 151346Z 30005KT 05/M09 A3005 RMK A01 T00481087  RH  037%=      5-min Rain = 0
KNH1 151347Z 30005KT 05/M09 A3005 RMK A01 T00471085  RH  038%=      5-min Rain = 0
KNH1 151348Z 30004KT 05/M09 A3006 RMK A01 T00451085  RH  038%=      5-min Rain = 0
KNH1 151349Z 31004KT 05/M09 A3006 RMK A01 T00451087  RH  038%=      5-min Rain = 0
KNH1 151350Z 31003KT 05/M09 A3006 RMK A01 T00461088  RH  037%=      5-min Rain = 0
KNH1 151351Z 29003KT 05/M09 A3005 RMK A01 T00471088  RH  037%=      5-min Rain = 0
KNH1 151352Z 31003KT 05/M09 A3006 RMK A01 T00481087  RH  037%=      5-min Rain = 0
KNH1 151353Z 32003KT 05/M09 A3006 RMK A01 T00471086  RH  037%=      5-min Rain = 0
KNH1 151354Z 32002KT 05/M09 A3006 RMK A01 T00471087  RH  037%=      5-min Rain = 0
KNH1 151355Z 32003KT 05/M09 A3006 RMK A01 T00471087  RH  037%=      5-min Rain = 0
KNH1 151356Z 32003KT 05/M09 A3006 RMK A01 T00471087  RH  037%=      5-min Rain = 0
KNH1 151357Z 32002KT 05/M09 A3006 RMK A01 T00471087  RH  037%=      5-min Rain = 0
KNH1 151358Z 32003KT 05/M09 A3006 RMK A01 T00471087  RH  037%=      5-min Rain = 0
KNH1 151359Z 31004KT 05/M09 A3006 RMK A01 T00471087  RH  037%=      5-min Rain = 0
KNH1 151400Z 32005KT 05/M09 A3006 RMK A01 T00471087  RH  037%=      5-min Rain = 0
KNH1 151401Z 31004KT 05/M09 A3006 RMK A01 T00481087  RH  037%=      5-min Rain = 0
KNH1 151402Z 31003KT 05/M09 A3006 RMK A01 T00481086  RH  037%=      5-min Rain = 0
KNH1 151403Z 32004KT 05/M09 A3006 RMK A01 T00481085  RH  038%=      5-min Rain = 0
KNH1 151404Z 32004KT 05/M09 A3006 RMK A01 T00481086  RH  037%=      5-min Rain = 0
KNH1 151405Z 32003KT 05/M09 A3006 RMK A01 T00491086  RH  037%=      5-min Rain = 0
KNH1 151406Z 32004KT 05/M09 A3006 RMK A01 T00501085  RH  037%=      5-min Rain = 0
KNH1 151407Z 33005KT 05/M09 A3006 RMK A01 T00501086  RH  037%=      5-min Rain = 0
KNH1 151408Z 32005KT 05/M08 A3006 RMK A01 T00511083  RH  037%=      5-min Rain = 0
KNH1 151409Z 31003KT 05/M08 A3006 RMK A01 T00501082  RH  038%=      5-min Rain = 0
KNH1 151410Z 32003KT 05/M08 A3006 RMK A01 T00491083  RH  038%=      5-min Rain = 0
KNH1 151411Z 33004KT 05/M08 A3006 RMK A01 T00491083  RH  038%=      5-min Rain = 0
KNH1 151412Z 32004KT 05/M08 A3006 RMK A01 T00501083  RH  038%=      5-min Rain = 0
KNH1 151413Z 32002KT 05/M08 A3006 RMK A01 T00511082  RH  037%=      5-min Rain = 0
KNH1 151414Z 31003KT 05/M08 A3006 RMK A01 T00521082  RH  037%=      5-min Rain = 0
KNH1 151415Z 31003KT 05/M08 A3006 RMK A01 T00531081  RH  037%=      5-min Rain = 0
KNH1 151416Z 31003KT 05/M08 A3006 RMK A01 T00521081  RH  038%=      5-min Rain = 0
KNH1 151417Z 32003KT 05/M08 A3006 RMK A01 T00521080  RH  038%=      5-min Rain = 0
KNH1 151418Z 30003KT 05/M08 A3006 RMK A01 T00511081  RH  038%=      5-min Rain = 0
KNH1 151419Z 30003KT 05/M08 A3006 RMK A01 T00501080  RH  039%=      5-min Rain = 0
KNH1 151420Z 30003KT 05/M08 A3006 RMK A01 T00491079  RH  039%=      5-min Rain = 0
KNH1 151421Z 30003KT 05/M08 A3006 RMK A01 T00491079  RH  039%=      5-min Rain = 0
KNH1 151422Z 29003KT 05/M08 A3006 RMK A01 T00481079  RH  039%=      5-min Rain = 0
KNH1 151423Z 28003KT 05/M08 A3006 RMK A01 T00481078  RH  039%=      5-min Rain = 0
KNH1 151424Z 29003KT 05/M08 A3006 RMK A01 T00481078  RH  040%=      5-min Rain = 0
KNH1 151425Z 29003KT 05/M08 A3006 RMK A01 T00471078  RH  040%=      5-min Rain = 0
KNH1 151426Z 28003KT 05/M08 A3006 RMK A01 T00471078  RH  040%=      5-min Rain = 0
KNH1 151427Z 29004KT 05/M08 A3006 RMK A01 T00471077  RH  040%=      5-min Rain = 0
KNH1 151428Z 29004KT 05/M08 A3006 RMK A01 T00471076  RH  041%=      5-min Rain = 0
KNH1 151429Z 30003KT 05/M08 A3006 RMK A01 T00461076  RH  041%=      5-min Rain = 0
KNH1 151430Z 30004KT 05/M07 A3006 RMK A01 T00471072  RH  042%=      5-min Rain = 0
KNH1 151431Z 29003KT 05/M07 A3006 RMK A01 T00461068  RH  044%=      5-min Rain = 0
KNH1 151432Z 27003KT 05/M07 A3006 RMK A01 T00451067  RH  044%=      5-min Rain = 0
KNH1 151433Z 26004KT 05/M07 A3007 RMK A01 T00451071  RH  042%=      5-min Rain = 0
KNH1 151434Z 25004KT 05/M07 A3007 RMK A01 T00461074  RH  042%=      5-min Rain = 0
KNH1 151435Z 25004KT 05/M07 A3007 RMK A01 T00461074  RH  041%=      5-min Rain = 0
KNH1 151436Z 25004KT 05/M07 A3007 RMK A01 T00461074  RH  041%=      5-min Rain = 0
KNH1 151437Z 25005KT 05/M08 A3007 RMK A01 T00461075  RH  041%=      5-min Rain = 0
KNH1 151438Z 25005KT 05/M08 A3007 RMK A01 T00461076  RH  041%=      5-min Rain = 0
KNH1 151439Z 24005KT 05/M08 A3007 RMK A01 T00461076  RH  041%=      5-min Rain = 0
KNH1 151440Z 24005KT 05/M08 A3007 RMK A01 T00461075  RH  041%=      5-min Rain = 0
KNH1 151441Z 25005KT 05/M08 A3007 RMK A01 T00471075  RH  041%=      5-min Rain = 0
KNH1 151442Z 25005KT 05/M08 A3007 RMK A01 T00471075  RH  041%=      5-min Rain = 0
KNH1 151443Z 26005KT 05/M08 A3007 RMK A01 T00481075  RH  041%=      5-min Rain = 0
KNH1 151444Z 26004KT 05/M07 A3007 RMK A01 T00481074  RH  041%=      5-min Rain = 0
KNH1 151445Z 27004KT 05/M07 A3007 RMK A01 T00481073  RH  041%=      5-min Rain = 0
KNH1 151446Z 27004KT 05/M07 A3007 RMK A01 T00481073  RH  041%=      5-min Rain = 0
KNH1 151447Z 28004KT 05/M07 A3007 RMK A01 T00481072  RH  041%=      5-min Rain = 0
KNH1 151448Z 27003KT 05/M07 A3007 RMK A01 T00481071  RH  042%=      5-min Rain = 0
KNH1 151449Z 26004KT 05/M07 A3007 RMK A01 T00481071  RH  042%=      5-min Rain = 0
KNH1 151450Z 26004KT 05/M07 A3007 RMK A01 T00481072  RH  041%=      5-min Rain = 0
KNH1 151451Z 26004KT 05/M07 A3007 RMK A01 T00491071  RH  042%=      5-min Rain = 0
KNH1 151452Z 27004KT 05/M07 A3007 RMK A01 T00491070  RH  042%=      5-min Rain = 0
KNH1 151453Z 26004KT 05/M07 A3008 RMK A01 T00501070  RH  042%=      5-min Rain = 0
KNH1 151454Z 26005KT 05/M07 A3008 RMK A01 T00511069  RH  042%=      5-min Rain = 0
KNH1 151455Z 27004KT 05/M07 A3008 RMK A01 T00511067  RH  042%=      5-min Rain = 0
KNH1 151456Z 27004KT 05/M06 A3008 RMK A01 T00521063  RH  043%=      5-min Rain = 0
KNH1 151457Z 27004KT 05/M06 A3008 RMK A01 T00521061  RH  044%=      5-min Rain = 0
KNH1 151458Z 28004KT 05/M06 A3008 RMK A01 T00531060  RH  044%=      5-min Rain = 0
KNH1 151459Z 28004KT 05/M06 A3008 RMK A01 T00531061  RH  043%=      5-min Rain = 0
KNH1 151500Z 28004KT 05/M06 A3008 RMK A01 T00541064  RH  042%=      5-min Rain = 0
KNH1 151501Z 28004KT 05/M06 A3008 RMK A01 T00541064  RH  042%=      5-min Rain = 0
KNH1 151502Z 29004KT 06/M06 A3008 RMK A01 T00551064  RH  042%=      5-min Rain = 0
KNH1 151503Z 29004KT 06/M06 A3008 RMK A01 T00551061  RH  043%=      5-min Rain = 0
KNH1 151504Z 30004KT 06/M06 A3008 RMK A01 T00561060  RH  043%=      5-min Rain = 0
KNH1 151505Z 30005KT 06/M06 A3008 RMK A01 T00561060  RH  043%=      5-min Rain = 0
KNH1 151506Z 30004KT 06/M06 A3008 RMK A01 T00571064  RH  041%=      5-min Rain = 0
KNH1 151507Z 31004KT 06/M07 A3008 RMK A01 T00571066  RH  041%=      5-min Rain = 0
KNH1 151508Z 31004KT 06/M07 A3008 RMK A01 T00581069  RH  040%=      5-min Rain = 0
KNH1 151509Z 30004KT 06/M07 A3008 RMK A01 T00591069  RH  039%=      5-min Rain = 0
KNH1 151510Z 30003KT 06/M07 A3008 RMK A01 T00601068  RH  039%=      5-min Rain = 0
KNH1 151511Z 30003KT 06/M07 A3008 RMK A01 T00601066  RH  040%=      5-min Rain = 0
KNH1 151512Z 30003KT 06/M07 A3009 RMK A01 T00601065  RH  040%=      5-min Rain = 0
KNH1 151513Z 30003KT 06/M06 A3009 RMK A01 T00611064  RH  040%=      5-min Rain = 0
KNH1 151514Z 29003KT 06/M06 A3009 RMK A01 T00611064  RH  040%=      5-min Rain = 0
KNH1 151515Z 30003KT 06/M06 A3009 RMK A01 T00621063  RH  040%=      5-min Rain = 0
KNH1 151516Z 30003KT 06/M06 A3009 RMK A01 T00621063  RH  040%=      5-min Rain = 0
KNH1 151517Z 30003KT 06/M06 A3009 RMK A01 T00621063  RH  040%=      5-min Rain = 0
KNH1 151518Z 30003KT 06/M06 A3009 RMK A01 T00631061  RH  041%=      5-min Rain = 0
KNH1 151519Z 30004KT 06/M06 A3009 RMK A01 T00631061  RH  040%=      5-min Rain = 0
KNH1 151520Z 30004KT 06/M06 A3009 RMK A01 T00641060  RH  041%=      5-min Rain = 0
KNH1 151521Z 31004KT 06/M06 A3009 RMK A01 T00641061  RH  040%=      5-min Rain = 0
KNH1 151522Z 31005KT 06/M06 A3009 RMK A01 T00641064  RH  039%=      5-min Rain = 0
KNH1 151523Z 31004KT 07/M06 A3009 RMK A01 T00651064  RH  039%=      5-min Rain = 0
KNH1 151524Z 32004KT 07/M07 A3009 RMK A01 T00651065  RH  039%=      5-min Rain = 0
KNH1 151525Z 32003KT 07/M06 A3009 RMK A01 T00651064  RH  039%=      5-min Rain = 0
KNH1 151526Z 32003KT 07/M06 A3009 RMK A01 T00661062  RH  039%=      5-min Rain = 0
KNH1 151527Z 32004KT 07/M06 A3009 RMK A01 T00661063  RH  039%=      5-min Rain = 0
KNH1 151528Z 33005KT 07/M06 A3009 RMK A01 T00671063  RH  039%=      5-min Rain = 0
KNH1 151529Z 33006KT 07/M06 A3009 RMK A01 T00681063  RH  039%=      5-min Rain = 0
KNH1 151530Z 33006KT 07/M06 A3009 RMK A01 T00681064  RH  038%=      5-min Rain = 0
KNH1 151531Z 34006KT 07/M06 A3009 RMK A01 T00691063  RH  038%=      5-min Rain = 0
KNH1 151532Z 34006KT 07/M06 A3009 RMK A01 T00691061  RH  039%=      5-min Rain = 0
KNH1 151533Z 34005KT 07/M06 A3009 RMK A01 T00701060  RH  039%=      5-min Rain = 0
KNH1 151534Z 34005KT 07/M06 A3009 RMK A01 T00711058  RH  039%=      5-min Rain = 0
KNH1 151535Z 33005KT 07/M06 A3009 RMK A01 T00721058  RH  039%=      5-min Rain = 0
KNH1 151536Z 33005KT 07/M06 A301 RMK A01 T00721060  RH  038%=      5-min Rain = 0
KNH1 151537Z 33004KT 07/M06 A301 RMK A01 T00731060  RH  038%=      5-min Rain = 0
KNH1 151538Z 33004KT 07/M06 A301 RMK A01 T00741060  RH  038%=      5-min Rain = 0
KNH1 151539Z 33005KT 08/M06 A301 RMK A01 T00751062  RH  037%=      5-min Rain = 0
KNH1 151540Z 33005KT 08/M06 A301 RMK A01 T00761061  RH  037%=      5-min Rain = 0
KNH1 151541Z 33005KT 08/M06 A301 RMK A01 T00771062  RH  037%=      5-min Rain = 0
KNH1 151542Z 34006KT 08/M06 A301 RMK A01 T00771060  RH  037%=      5-min Rain = 0
KNH1 151543Z 33006KT 08/M06 A301 RMK A01 T00781058  RH  037%=      5-min Rain = 0
KNH1 151544Z 34006KT 08/M06 A301 RMK A01 T00781059  RH  037%=      5-min Rain = 0
KNH1 151545Z 34006KT 08/M06 A301 RMK A01 T00791060  RH  037%=      5-min Rain = 0
KNH1 151546Z 34006KT 08/M06 A301 RMK A01 T00791055  RH  038%=      5-min Rain = 0
KNH1 151547Z 35006KT 08/M05 A301 RMK A01 T00801053  RH  039%=      5-min Rain = 0
KNH1 151548Z 34006KT 08/M05 A301 RMK A01 T00801054  RH  038%=      5-min Rain = 0
KNH1 151549Z 34006KT 08/M05 A301 RMK A01 T00811053  RH  038%=      5-min Rain = 0
KNH1 151550Z 34006KT 08/M05 A301 RMK A01 T00821053  RH  038%=      5-min Rain = 0
KNH1 151551Z 34006KT 08/M05 A3011 RMK A01 T00821054  RH  037%=      5-min Rain = 0
KNH1 151552Z 33007KT 08/M06 A3011 RMK A01 T00831055  RH  037%=      5-min Rain = 0
KNH1 151553Z 33007KT 08/M06 A3011 RMK A01 T00841058  RH  036%=      5-min Rain = 0
KNH1 151554Z 33007KT 09/M06 A3011 RMK A01 T00861058  RH  036%=      5-min Rain = 0
KNH1 151555Z 34007KT 09/M06 A3011 RMK A01 T00871057  RH  036%=      5-min Rain = 0
KNH1 151556Z 34006KT 09/M06 A3011 RMK A01 T00881056  RH  035%=      5-min Rain = 0
KNH1 151557Z 34006KT 09/M06 A3011 RMK A01 T00891056  RH  035%=      5-min Rain = 0
KNH1 151558Z 34006KT 09/M06 A3011 RMK A01 T00911056  RH  035%=      5-min Rain = 0
KNH1 151559Z 34006KT 09/M06 A3011 RMK A01 T00931058  RH  034%=      5-min Rain = 0
KNH1 151600Z 34006KT 10/M06 A3011 RMK A01 T00951059  RH  033%=      5-min Rain = 0
KNH1 151601Z 33006KT 10/M06 A3011 RMK A01 T00971061  RH  032%=      5-min Rain = 0
KNH1 151602Z 34007KT 10/M06 A3011 RMK A01 T00981061  RH  032%=      5-min Rain = 0
KNH1 151603Z 34006KT 10/M06 A3011 RMK A01 T01001061  RH  032%=      5-min Rain = 0
KNH1 151604Z 34007KT 10/M06 A3011 RMK A01 T01011058  RH  032%=      5-min Rain = 0
KNH1 151605Z 34006KT 10/M06 A3011 RMK A01 T01021058  RH  032%=      5-min Rain = 0
KNH1 151606Z 33007KT 10/M06 A3012 RMK A01 T01031057  RH  032%=      5-min Rain = 0
KNH1 151607Z 34006KT 10/M06 A3012 RMK A01 T01031058  RH  032%=      5-min Rain = 0
KNH1 151608Z 33006KT 10/M06 A3012 RMK A01 T01041058  RH  032%=      5-min Rain = 0
KNH1 151609Z 33007KT 11/M06 A3012 RMK A01 T01051057  RH  032%=      5-min Rain = 0
KNH1 151610Z 34007KT 11/M06 A3012 RMK A01 T01051058  RH  031%=      5-min Rain = 0
KNH1 151611Z 33007KT 11/M06 A3012 RMK A01 T01071059  RH  031%=      5-min Rain = 0
KNH1 151612Z 33007KT 11/M06 A3012 RMK A01 T01081060  RH  030%=      5-min Rain = 0
KNH1 151613Z 34008KT 11/M06 A3012 RMK A01 T01101062  RH  029%=      5-min Rain = 0
KNH1 151614Z 34008KT 11/M06 A3012 RMK A01 T01111060  RH  030%=      5-min Rain = 0
KNH1 151615Z 34007KT 11/M06 A3012 RMK A01 T01131063  RH  029%=      5-min Rain = 0
KNH1 151616Z 34008KT 11/M07 A3012 RMK A01 T01141065  RH  028%=      5-min Rain = 0
KNH1 151617Z 34008KT 12/M06 A3012 RMK A01 T01161064  RH  028%=      5-min Rain = 0
KNH1 151618Z 34007KT 12/M06 A3012 RMK A01 T01181062  RH  028%=      5-min Rain = 0
KNH1 151619Z 34008KT 12/M06 A3012 RMK A01 T01191064  RH  027%=      5-min Rain = 0
KNH1 151620Z 34007KT 12/M07 A3013 RMK A01 T01201065  RH  027%=      5-min Rain = 0
KNH1 151621Z 33008KT 12/M06 A3013 RMK A01 T01201064  RH  027%=      5-min Rain = 0
KNH1 151622Z 33007KT 12/M07 A3013 RMK A01 T01211066  RH  026%=      5-min Rain = 0
KNH1 151623Z 33006KT 12/M07 A3013 RMK A01 T01221066  RH  026%=      5-min Rain = 0
KNH1 151624Z 34007KT 12/M07 A3013 RMK A01 T01221066  RH  026%=      5-min Rain = 0
KNH1 151625Z 34007KT 12/M06 A3013 RMK A01 T01231063  RH  027%=      5-min Rain = 0
KNH1 151626Z 34007KT 13/M06 A3013 RMK A01 T01251062  RH  027%=      5-min Rain = 0
KNH1 151627Z 33005KT 13/M06 A3013 RMK A01 T01271064  RH  026%=      5-min Rain = 0
KNH1 151628Z 31004KT 13/M07 A3013 RMK A01 T01281066  RH  025%=      5-min Rain = 0
KNH1 151629Z 34004KT 13/M06 A3013 RMK A01 T01301064  RH  025%=      5-min Rain = 0
KNH1 151630Z 33006KT 13/M07 A3013 RMK A01 T01311068  RH  024%=      5-min Rain = 0
KNH1 151631Z 32003KT 13/M07 A3013 RMK A01 T01331068  RH  024%=      5-min Rain = 0
KNH1 151632Z 33005KT 14/M07 A3014 RMK A01 T01351065  RH  024%=      5-min Rain = 0
KNH1 151633Z 33006KT 14/M07 A3014 RMK A01 T01361069  RH  023%=      5-min Rain = 0
KNH1 151634Z 33006KT 14/M07 A3014 RMK A01 T01371069  RH  023%=      5-min Rain = 0
KNH1 151635Z 33007KT 14/M07 A3014 RMK A01 T01381070  RH  023%=      5-min Rain = 0
KNH1 151636Z 33007KT 14/M07 A3014 RMK A01 T01391071  RH  023%=      5-min Rain = 0
KNH1 151637Z 34007KT 14/M07 A3013 RMK A01 T01401068  RH  023%=      5-min Rain = 0
KNH1 151638Z 34008KT 14/M07 A3013 RMK A01 T01411067  RH  023%=      5-min Rain = 0
KNH1 151639Z 33007KT 14/M07 A3014 RMK A01 T01421068  RH  023%=      5-min Rain = 0
KNH1 151640Z 33006KT 14/M07 A3014 RMK A01 T01431068  RH  023%=      5-min Rain = 0
KNH1 151641Z 33007KT 14/M07 A3014 RMK A01 T01441067  RH  023%=      5-min Rain = 0
KNH1 151642Z 33006KT 14/M07 A3014 RMK A01 T01441066  RH  023%=      5-min Rain = 0
KNH1 151643Z 34006KT 15/M07 A3014 RMK A01 T01451066  RH  023%=      5-min Rain = 0
KNH1 151644Z 34008KT 15/M07 A3014 RMK A01 T01461067  RH  022%=      5-min Rain = 0
KNH1 151645Z 34008KT 15/M07 A3014 RMK A01 T01461069  RH  022%=      5-min Rain = 0
KNH1 151646Z 33006KT 15/M07 A3014 RMK A01 T01471071  RH  022%=      5-min Rain = 0
KNH1 151647Z 34008KT 15/M07 A3014 RMK A01 T01471070  RH  022%=      5-min Rain = 0
KNH1 151648Z 34007KT 15/M07 A3014 RMK A01 T01481069  RH  022%=      5-min Rain = 0
KNH1 151649Z 34008KT 15/M07 A3014 RMK A01 T01491069  RH  022%=      5-min Rain = 0
KNH1 151650Z 34007KT 15/M07 A3014 RMK A01 T01491068  RH  022%=      5-min Rain = 0
KNH1 151651Z 35008KT 15/M06 A3014 RMK A01 T01501064  RH  022%=      5-min Rain = 0
KNH1 151652Z 34009KT 15/M07 A3014 RMK A01 T01511067  RH  022%=      5-min Rain = 0
KNH1 151653Z 34010KT 15/M07 A3015 RMK A01 T01511072  RH  021%=      5-min Rain = 0
KNH1 151654Z 34010KT 15/M07 A3015 RMK A01 T01511071  RH  021%=      5-min Rain = 0
KNH1 151655Z 34009KT 15/M07 A3015 RMK A01 T01521068  RH  021%=      5-min Rain = 0
KNH1 151656Z 34007KT 15/M06 A3015 RMK A01 T01521064  RH  022%=      5-min Rain = 0
KNH1 151657Z 34008KT 15/M06 A3015 RMK A01 T01541060  RH  023%=      5-min Rain = 0
KNH1 151658Z 34008KT 15/M06 A3015 RMK A01 T01541062  RH  022%=      5-min Rain = 0
KNH1 151659Z 34007KT 16/M06 A3015 RMK A01 T01551063  RH  022%=      5-min Rain = 0
KNH1 151700Z 34007KT 16/M06 A3015 RMK A01 T01561059  RH  022%=      5-min Rain = 0
KNH1 151701Z 34009KT 16/M06 A3015 RMK A01 T01561061  RH  022%=      5-min Rain = 0
KNH1 151702Z 34010KT 16/M07 A3015 RMK A01 T01561065  RH  021%=      5-min Rain = 0
KNH1 151703Z 35008KT 16/M06 A3015 RMK A01 T01561064  RH  021%=      5-min Rain = 0
KNH1 151704Z 35009KT 16/M06 A3015 RMK A01 T01561063  RH  022%=      5-min Rain = 0
KNH1 151705Z 34009KT 16/M06 A3015 RMK A01 T01561061  RH  022%=      5-min Rain = 0
KNH1 151706Z 34008KT 16/M06 A3015 RMK A01 T01571063  RH  021%=      5-min Rain = 0
KNH1 151707Z 34009KT 16/M07 A3015 RMK A01 T01581067  RH  021%=      5-min Rain = 0
KNH1 151708Z 34009KT 16/M07 A3015 RMK A01 T01581069  RH  020%=      5-min Rain = 0
KNH1 151709Z 34009KT 16/M07 A3015 RMK A01 T01591070  RH  020%=      5-min Rain = 0
KNH1 151710Z 35008KT 16/M07 A3015 RMK A01 T01591068  RH  020%=      5-min Rain = 0
KNH1 151711Z 35006KT 16/M06 A3015 RMK A01 T01601063  RH  021%=      5-min Rain = 0
KNH1 151712Z 35008KT 16/M06 A3016 RMK A01 T01601061  RH  021%=      5-min Rain = 0
KNH1 151713Z 34009KT 16/M07 A3016 RMK A01 T01601066  RH  021%=      5-min Rain = 0
KNH1 151714Z 35009KT 16/M07 A3016 RMK A01 T01611067  RH  020%=      5-min Rain = 0
KNH1 151715Z 34008KT 16/M07 A3015 RMK A01 T01611068  RH  020%=      5-min Rain = 0
KNH1 151716Z 34009KT 16/M07 A3015 RMK A01 T01611068  RH  020%=      5-min Rain = 0
KNH1 151717Z 35008KT 16/M07 A3015 RMK A01 T01621069  RH  020%=      5-min Rain = 0
KNH1 151718Z 35009KT 16/M07 A3015 RMK A01 T01621066  RH  020%=      5-min Rain = 0
KNH1 151719Z 35008KT 16/M07 A3015 RMK A01 T01611065  RH  021%=      5-min Rain = 0
KNH1 151720Z 35009KT 16/M06 A3015 RMK A01 T01621063  RH  021%=      5-min Rain = 0
KNH1 151721Z 35010KT 16/M06 A3015 RMK A01 T01621062  RH  021%=      5-min Rain = 0
KNH1 151722Z 36010KT 16/M07 A3015 RMK A01 T01621065  RH  020%=      5-min Rain = 0
KNH1 151723Z 35011KT 16/M07 A3016 RMK A01 T01621071  RH  019%=      5-min Rain = 0
KNH1 151724Z 35012KT 16/M07 A3016 RMK A01 T01621072  RH  019%=      5-min Rain = 0
KNH1 151725Z 35013KT 16/M07 A3016 RMK A01 T01611074  RH  019%=      5-min Rain = 0
KNH1 151726Z 35009KT 16/M07 A3016 RMK A01 T01601072  RH  020%=      5-min Rain = 0
KNH1 151727Z 00008KT 16/M07 A3015 RMK A01 T01601066  RH  021%=      5-min Rain = 0
KNH1 151728Z 36010KT 16/M07 A3015 RMK A01 T01601066  RH  021%=      5-min Rain = 0
KNH1 151729Z 36009KT 16/M07 A3015 RMK A01 T01601067  RH  020%=      5-min Rain = 0
KNH1 151730Z 35008KT 16/M07 A3016 RMK A01 T01601069  RH  020%=      5-min Rain = 0
KNH1 151731Z 00010KT 16/M07 A3016 RMK A01 T01601070  RH  020%=      5-min Rain = 0
KNH1 151732Z 35010KT 16/M07 A3016 RMK A01 T01591071  RH  020%=      5-min Rain = 0
KNH1 151733Z 00009KT 16/M07 A3016 RMK A01 T01591069  RH  020%=      5-min Rain = 0
KNH1 151734Z 00009KT 16/M07 A3016 RMK A01 T01591070  RH  020%=      5-min Rain = 0
KNH1 151735Z 36010KT 16/M07 A3016 RMK A01 T01581071  RH  020%=      5-min Rain = 0
KNH1 151736Z 00011KT 16/M07 A3016 RMK A01 T01591072  RH  020%=      5-min Rain = 0
KNH1 151737Z 00011KT 16/M07 A3016 RMK A01 T01591073  RH  020%=      5-min Rain = 0
KNH1 151738Z 00012KT 16/M07 A3016 RMK A01 T01591073  RH  020%=      5-min Rain = 0
KNH1 151739Z 00012KT 16/M07 A3016 RMK A01 T01591074  RH  019%=      5-min Rain = 0
KNH1 151740Z 35010KT 16/M07 A3016 RMK A01 T01581074  RH  020%=      5-min Rain = 0
KNH1 151741Z 35009KT 16/M08 A3015 RMK A01 T01581075  RH  019%=      5-min Rain = 0
KNH1 151742Z 35009KT 16/M07 A3016 RMK A01 T01581074  RH  020%=      5-min Rain = 0
KNH1 151743Z 35011KT 16/M07 A3016 RMK A01 T01581071  RH  020%=      5-min Rain = 0
KNH1 151744Z 35012KT 16/M08 A3016 RMK A01 T01581076  RH  019%=      5-min Rain = 0
KNH1 151745Z 36011KT 16/M08 A3016 RMK A01 T01581075  RH  019%=      5-min Rain = 0
KNH1 151746Z 00013KT 16/M08 A3016 RMK A01 T01591075  RH  019%=      5-min Rain = 0
KNH1 151747Z 00011KT 16/M08 A3017 RMK A01 T01591075  RH  019%=      5-min Rain = 0
KNH1 151748Z 01015KT 16/M08 A3017 RMK A01 T01581076  RH  019%=      5-min Rain = 0
KNH1 151749Z 01016G21KT 16/M08 A3017 RMK A01 T01591080  RH  019%=      5-min Rain = 0
KNH1 151750Z 01013G20KT 16/M08 A3017 RMK A01 T01571084  RH  018%=      5-min Rain = 0
KNH1 151751Z 01015KT 16/M09 A3016 RMK A01 T01551086  RH  018%=      5-min Rain = 0
KNH1 151752Z 01015KT 15/M09 A3016 RMK A01 T01531089  RH  018%=      5-min Rain = 0
KNH1 151753Z 01012KT 15/M09 A3016 RMK A01 T01521090  RH  018%=      5-min Rain = 0
KNH1 151754Z 01010KT 15/M09 A3016 RMK A01 T01511088  RH  018%=      5-min Rain = 0
KNH1 151755Z 01008KT 15/M09 A3016 RMK A01 T01511088  RH  018%=      5-min Rain = 0
KNH1 151756Z 36009KT 15/M08 A3016 RMK A01 T01511084  RH  019%=      5-min Rain = 0
KNH1 151757Z 36009KT 15/M08 A3016 RMK A01 T01511082  RH  019%=      5-min Rain = 0
KNH1 151758Z 36009KT 15/M08 A3016 RMK A01 T01511082  RH  019%=      5-min Rain = 0
KNH1 151759Z 00010KT 15/M08 A3016 RMK A01 T01511082  RH  019%=      5-min Rain = 0
KNH1 151800Z 00009KT 15/M08 A3016 RMK A01 T01511083  RH  019%=      5-min Rain = 0
KNH1 151801Z 01011KT 15/M08 A3016 RMK A01 T01511082  RH  019%=      5-min Rain = 0
KNH1 151802Z 01010KT 15/M08 A3016 RMK A01 T01511083  RH  019%=      5-min Rain = 0
KNH1 151803Z 01008KT 15/M08 A3016 RMK A01 T01511082  RH  019%=      5-min Rain = 0
KNH1 151804Z 01007KT 15/M08 A3016 RMK A01 T01501080  RH  020%=      5-min Rain = 0
KNH1 151805Z 01008KT 15/M08 A3016 RMK A01 T01511079  RH  020%=      5-min Rain = 0
KNH1 151806Z 01009KT 15/M08 A3016 RMK A01 T01511080  RH  020%=      5-min Rain = 0
KNH1 151807Z 01009KT 15/M08 A3016 RMK A01 T01511080  RH  020%=      5-min Rain = 0
KNH1 151808Z 01011KT 15/M08 A3016 RMK A01 T01501080  RH  020%=      5-min Rain = 0
KNH1 151809Z 01012KT 15/M08 A3016 RMK A01 T01501080  RH  020%=      5-min Rain = 0
KNH1 151810Z 01011KT 15/M08 A3016 RMK A01 T01491081  RH  020%=      5-min Rain = 0
KNH1 151811Z 01011KT 15/M08 A3016 RMK A01 T01491080  RH  020%=      5-min Rain = 0
KNH1 151812Z 01013KT 15/M08 A3016 RMK A01 T01491082  RH  019%=      5-min Rain = 0
KNH1 151813Z 00012KT 15/M08 A3016 RMK A01 T01491082  RH  019%=      5-min Rain = 0
KNH1 151814Z 00013KT 15/M08 A3016 RMK A01 T01481081  RH  020%=      5-min Rain = 0
KNH1 151815Z 01011G17KT 15/M08 A3016 RMK A01 T01481081  RH  020%=      5-min Rain = 0
KNH1 151816Z 01013KT 15/M08 A3016 RMK A01 T01481082  RH  020%=      5-min Rain = 0
KNH1 151817Z 01009KT 15/M08 A3016 RMK A01 T01481080  RH  020%=      5-min Rain = 0
KNH1 151818Z 01009KT 15/M08 A3016 RMK A01 T01471079  RH  020%=      5-min Rain = 0
KNH1 151819Z 02007KT 15/M08 A3016 RMK A01 T01471078  RH  020%=      5-min Rain = 0
KNH1 151820Z 02010KT 15/M08 A3016 RMK A01 T01471077  RH  021%=      5-min Rain = 0
KNH1 151821Z 02011KT 15/M08 A3016 RMK A01 T01471078  RH  020%=      5-min Rain = 0
KNH1 151822Z 02011KT 15/M08 A3016 RMK A01 T01461079  RH  020%=      5-min Rain = 0
KNH1 151823Z 02011G17KT 15/M08 A3015 RMK A01 T01451078  RH  021%=      5-min Rain = 0
KNH1 151824Z 01010KT 15/M08 A3016 RMK A01 T01451078  RH  021%=      5-min Rain = 0
KNH1 151825Z 02011KT 15/M08 A3015 RMK A01 T01451078  RH  021%=      5-min Rain = 0
KNH1 151826Z 02008KT 14/M08 A3016 RMK A01 T01441077  RH  021%=      5-min Rain = 0
KNH1 151827Z 01011KT 14/M08 A3015 RMK A01 T01441075  RH  021%=      5-min Rain = 0
KNH1 151828Z 01009KT 14/M08 A3016 RMK A01 T01441076  RH  021%=      5-min Rain = 0
KNH1 151829Z 01008KT 14/M08 A3016 RMK A01 T01431075  RH  021%=      5-min Rain = 0
KNH1 151830Z 01010KT 14/M08 A3015 RMK A01 T01441075  RH  021%=      5-min Rain = 0
KNH1 151831Z 01009KT 14/M08 A3015 RMK A01 T01431076  RH  021%=      5-min Rain = 0
KNH1 151832Z 02011KT 14/M08 A3015 RMK A01 T01421078  RH  021%=      5-min Rain = 0
KNH1 151833Z 01011KT 14/M08 A3015 RMK A01 T01411079  RH  021%=      5-min Rain = 0
KNH1 151834Z 02010KT 14/M08 A3015 RMK A01 T01411078  RH  021%=      5-min Rain = 0
KNH1 151835Z 02012KT 14/M08 A3015 RMK A01 T01401077  RH  021%=      5-min Rain = 0
KNH1 151836Z 01012KT 14/M08 A3015 RMK A01 T01401078  RH  021%=      5-min Rain = 0
KNH1 151837Z 01013KT 14/M08 A3015 RMK A01 T01401078  RH  021%=      5-min Rain = 0
KNH1 151838Z 01011KT 14/M08 A3015 RMK A01 T01391078  RH  021%=      5-min Rain = 0
KNH1 151839Z 01011KT 14/M08 A3015 RMK A01 T01391079  RH  021%=      5-min Rain = 0
KNH1 151840Z 01010KT 14/M08 A3015 RMK A01 T01391079  RH  021%=      5-min Rain = 0
KNH1 151841Z 01009KT 14/M08 A3014 RMK A01 T01391078  RH  022%=      5-min Rain = 0
KNH1 151842Z 01010KT 14/M08 A3014 RMK A01 T01391077  RH  022%=      5-min Rain = 0
KNH1 151843Z 01010KT 14/M08 A3014 RMK A01 T01391077  RH  022%=      5-min Rain = 0
KNH1 151844Z 01011KT 14/M08 A3014 RMK A01 T01391079  RH  021%=      5-min Rain = 0
KNH1 151845Z 01009KT 14/M08 A3014 RMK A01 T01391077  RH  022%=      5-min Rain = 0
KNH1 151846Z 01008KT 14/M08 A3014 RMK A01 T01381075  RH  022%=      5-min Rain = 0
KNH1 151847Z 01008KT 14/M08 A3014 RMK A01 T01391076  RH  022%=      5-min Rain = 0
KNH1 151848Z 01007KT 14/M08 A3014 RMK A01 T01381075  RH  022%=      5-min Rain = 0
KNH1 151849Z 01009G14KT 14/M07 A3014 RMK A01 T01391073  RH  022%=      5-min Rain = 0
KNH1 151850Z 01010KT 14/M08 A3014 RMK A01 T01391076  RH  022%=      5-min Rain = 0
KNH1 151851Z 02011KT 14/M08 A3014 RMK A01 T01381076  RH  022%=      5-min Rain = 0
KNH1 151852Z 02012KT 14/M08 A3014 RMK A01 T01381076  RH  022%=      5-min Rain = 0
KNH1 151853Z 02011KT 14/M08 A3014 RMK A01 T01371076  RH  022%=      5-min Rain = 0
KNH1 151854Z 03010KT 14/M08 A3014 RMK A01 T01371076  RH  022%=      5-min Rain = 0
KNH1 151855Z 02012KT 14/M08 A3014 RMK A01 T01371076  RH  022%=      5-min Rain = 0
KNH1 151856Z 03012KT 14/M08 A3014 RMK A01 T01371078  RH  022%=      5-min Rain = 0
KNH1 151857Z 03013KT 14/M08 A3014 RMK A01 T01371078  RH  022%=      5-min Rain = 0
KNH1 151858Z 03012KT 14/M08 A3014 RMK A01 T01361079  RH  022%=      5-min Rain = 0
KNH1 151859Z 03009KT 14/M08 A3014 RMK A01 T01361078  RH  022%=      5-min Rain = 0
KNH1 151900Z 02011KT 14/M08 A3014 RMK A01 T01361078  RH  022%=      5-min Rain = 0
KNH1 151901Z 03013KT 14/M08 A3014 RMK A01 T01361078  RH  022%=      5-min Rain = 0
KNH1 151902Z 03013KT 14/M08 A3013 RMK A01 T01361079  RH  022%=      5-min Rain = 0
KNH1 151903Z 03013KT 14/M08 A3013 RMK A01 T01351080  RH  022%=      5-min Rain = 0
KNH1 151904Z 03013KT 14/M08 A3013 RMK A01 T01351080  RH  022%=      5-min Rain = 0
KNH1 151905Z 03013KT 14/M08 A3013 RMK A01 T01351080  RH  022%=      5-min Rain = 0
KNH1 151906Z 03011KT 13/M08 A3013 RMK A01 T01341080  RH  022%=      5-min Rain = 0
KNH1 151907Z 04011KT 13/M08 A3013 RMK A01 T01341078  RH  022%=      5-min Rain = 0
KNH1 151908Z 03010KT 13/M08 A3013 RMK A01 T01341078  RH  022%=      5-min Rain = 0
KNH1 151909Z 03010KT 14/M08 A3013 RMK A01 T01351079  RH  022%=      5-min Rain = 0
KNH1 151910Z 03009KT 14/M08 A3013 RMK A01 T01351077  RH  022%=      5-min Rain = 0
KNH1 151911Z 04008KT 14/M08 A3013 RMK A01 T01361076  RH  022%=      5-min Rain = 0
KNH1 151912Z 04010KT 14/M07 A3014 RMK A01 T01371074  RH  022%=      5-min Rain = 0
KNH1 151913Z 04009KT 14/M08 A3014 RMK A01 T01371077  RH  022%=      5-min Rain = 0
KNH1 151914Z 04010KT 14/M08 A3014 RMK A01 T01371077  RH  022%=      5-min Rain = 0
KNH1 151915Z 03007KT 14/M08 A3014 RMK A01 T01371076  RH  022%=      5-min Rain = 0
KNH1 151916Z 03009KT 14/M08 A3014 RMK A01 T01381077  RH  022%=      5-min Rain = 0
KNH1 151917Z 04009KT 14/M07 A3014 RMK A01 T01381074  RH  022%=      5-min Rain = 0
KNH1 151918Z 04009KT 14/M07 A3014 RMK A01 T01381074  RH  022%=      5-min Rain = 0
KNH1 151919Z 04010KT 14/M08 A3014 RMK A01 T01381075  RH  022%=      5-min Rain = 0
KNH1 151920Z 03010KT 14/M08 A3014 RMK A01 T01381075  RH  022%=      5-min Rain = 0
KNH1 151921Z 03009KT 14/M08 A3014 RMK A01 T01371077  RH  022%=      5-min Rain = 0
KNH1 151922Z 03011KT 14/M08 A3014 RMK A01 T01361078  RH  022%=      5-min Rain = 0
KNH1 151923Z 04008G13KT 14/M08 A3014 RMK A01 T01351077  RH  022%=      5-min Rain = 0
KNH1 151924Z 05010KT 14/M08 A3014 RMK A01 T01351075  RH  023%=      5-min Rain = 0
KNH1 151925Z 03010KT 14/M07 A3014 RMK A01 T01351074  RH  023%=      5-min Rain = 0
KNH1 151926Z 03011KT 14/M08 A3014 RMK A01 T01361076  RH  022%=      5-min Rain = 0
KNH1 151927Z 04008KT 14/M07 A3014 RMK A01 T01351074  RH  023%=      5-min Rain = 0
KNH1 151928Z 04009KT 14/M07 A3013 RMK A01 T01351071  RH  023%=      5-min Rain = 0
KNH1 151929Z 04013KT 14/M07 A3013 RMK A01 T01351074  RH  023%=      5-min Rain = 0
KNH1 151930Z 04010KT 13/M08 A3013 RMK A01 T01331076  RH  023%=      5-min Rain = 0
KNH1 151931Z 03010KT 13/M07 A3013 RMK A01 T01321073  RH  023%=      5-min Rain = 0
KNH1 151932Z 04011KT 13/M07 A3013 RMK A01 T01321074  RH  023%=      5-min Rain = 0
KNH1 151933Z 03011KT 13/M07 A3013 RMK A01 T01321074  RH  023%=      5-min Rain = 0
KNH1 151934Z 03011KT 13/M07 A3013 RMK A01 T01321074  RH  023%=      5-min Rain = 0
KNH1 151935Z 03010KT 13/M07 A3013 RMK A01 T01321073  RH  023%=      5-min Rain = 0
KNH1 151936Z 03013KT 13/M07 A3013 RMK A01 T01331072  RH  023%=      5-min Rain = 0
KNH1 151937Z 02012KT 13/M07 A3013 RMK A01 T01331072  RH  023%=      5-min Rain = 0
KNH1 151938Z 02011KT 13/M07 A3013 RMK A01 T01321074  RH  023%=      5-min Rain = 0
KNH1 151939Z 02012KT 13/M07 A3013 RMK A01 T01311074  RH  023%=      5-min Rain = 0
KNH1 151940Z 02009KT 13/M07 A3013 RMK A01 T01321072  RH  023%=      5-min Rain = 0
KNH1 151941Z 03011KT 13/M07 A3014 RMK A01 T01331073  RH  023%=      5-min Rain = 0
KNH1 151942Z 02011KT 13/M08 A3014 RMK A01 T01331075  RH  023%=      5-min Rain = 0
KNH1 151943Z 03011KT 13/M08 A3014 RMK A01 T01331075  RH  023%=      5-min Rain = 0
KNH1 151944Z 02009KT 13/M07 A3014 RMK A01 T01331074  RH  023%=      5-min Rain = 0
KNH1 151945Z 04010KT 13/M07 A3014 RMK A01 T01341074  RH  023%=      5-min Rain = 0
KNH1 151946Z 03008KT 14/M08 A3014 RMK A01 T01351075  RH  023%=      5-min Rain = 0
KNH1 151947Z 03011KT 14/M07 A3014 RMK A01 T01361073  RH  023%=      5-min Rain = 0
KNH1 151948Z 03009KT 14/M07 A3014 RMK A01 T01371073  RH  022%=      5-min Rain = 0
KNH1 151949Z 03009KT 14/M07 A3014 RMK A01 T01381073  RH  023%=      5-min Rain = 0
KNH1 151950Z 04007KT 14/M07 A3014 RMK A01 T01381074  RH  022%=      5-min Rain = 0
KNH1 151951Z 05007KT 14/M07 A3014 RMK A01 T01391070  RH  023%=      5-min Rain = 0
KNH1 151952Z 03008KT 14/M07 A3014 RMK A01 T01401071  RH  022%=      5-min Rain = 0
KNH1 151953Z 04010KT 14/M07 A3015 RMK A01 T01411073  RH  022%=      5-min Rain = 0
KNH1 151954Z 04009KT 14/M07 A3015 RMK A01 T01401072  RH  022%=      5-min Rain = 0
KNH1 151955Z 02008KT 14/M07 A3015 RMK A01 T01411072  RH  022%=      5-min Rain = 0
KNH1 151956Z 03008KT 14/M07 A3015 RMK A01 T01401072  RH  022%=      5-min Rain = 0
KNH1 151957Z 02008KT 14/M07 A3015 RMK A01 T01401072  RH  022%=      5-min Rain = 0
KNH1 151958Z 03007KT 14/M07 A3015 RMK A01 T01411069  RH  023%=      5-min Rain = 0
KNH1 151959Z 02009KT 14/M07 A3015 RMK A01 T01421069  RH  022%=      5-min Rain = 0
KNH1 152000Z 03009KT 14/M07 A3015 RMK A01 T01411073  RH  022%=      5-min Rain = 0
KNH1 152001Z 02007KT 14/M07 A3015 RMK A01 T01401071  RH  022%=      5-min Rain = 0
KNH1 152002Z 01009KT 14/M07 A3015 RMK A01 T01401070  RH  023%=      5-min Rain = 0
KNH1 152003Z 01009KT 14/M07 A3015 RMK A01 T01411072  RH  022%=      5-min Rain = 0
KNH1 152004Z 02008KT 14/M07 A3015 RMK A01 T01401071  RH  023%=      5-min Rain = 0
KNH1 152005Z 03008KT 14/M07 A3015 RMK A01 T01401070  RH  023%=      5-min Rain = 0
KNH1 152006Z 02007KT 14/M07 A3014 RMK A01 T01401070  RH  023%=      5-min Rain = 0
KNH1 152007Z 03009KT 14/M07 A3014 RMK A01 T01401068  RH  023%=      5-min Rain = 0
KNH1 152008Z 03009KT 14/M07 A3014 RMK A01 T01411073  RH  022%=      5-min Rain = 0
KNH1 152009Z 01009KT 14/M07 A3014 RMK A01 T01401071  RH  023%=      5-min Rain = 0
KNH1 152010Z 01008KT 14/M07 A3014 RMK A01 T01391071  RH  023%=      5-min Rain = 0
KNH1 152011Z 01009KT 14/M07 A3014 RMK A01 T01381069  RH  023%=      5-min Rain = 0
KNH1 152012Z 03007KT 14/M07 A3014 RMK A01 T01381069  RH  023%=      5-min Rain = 0
KNH1 152013Z 02009KT 14/M07 A3014 RMK A01 T01401069  RH  023%=      5-min Rain = 0
KNH1 152014Z 02007KT 14/M07 A3014 RMK A01 T01401071  RH  023%=      5-min Rain = 0
KNH1 152015Z 03009KT 14/M07 A3014 RMK A01 T01411069  RH  023%=      5-min Rain = 0
KNH1 152016Z 03008KT 14/M07 A3014 RMK A01 T01391072  RH  022%=      5-min Rain = 0
KNH1 152017Z 03008KT 14/M07 A3014 RMK A01 T01401069  RH  023%=      5-min Rain = 0
KNH1 152018Z 03008KT 14/M07 A3014 RMK A01 T01411069  RH  023%=      5-min Rain = 0
KNH1 152019Z 03008KT 14/M07 A3014 RMK A01 T01411069  RH  023%=      5-min Rain = 0
KNH1 152020Z 03009KT 14/M07 A3014 RMK A01 T01411071  RH  022%=      5-min Rain = 0
KNH1 152021Z 02007KT 14/M07 A3014 RMK A01 T01401071  RH  022%=      5-min Rain = 0
KNH1 152022Z 03006KT 14/M07 A3014 RMK A01 T01401068  RH  023%=      5-min Rain = 0
KNH1 152023Z 03008KT 14/M06 A3014 RMK A01 T01431064  RH  023%=      5-min Rain = 0
KNH1 152024Z 03007KT 14/M07 A3013 RMK A01 T01431070  RH  022%=      5-min Rain = 0
KNH1 152025Z 04007KT 14/M07 A3013 RMK A01 T01411070  RH  023%=      5-min Rain = 0
KNH1 152026Z 03006KT 14/M07 A3013 RMK A01 T01401069  RH  023%=      5-min Rain = 0
KNH1 152027Z 04007KT 14/M07 A3013 RMK A01 T01401067  RH  023%=      5-min Rain = 0
KNH1 152028Z 04008KT 14/M07 A3013 RMK A01 T01421066  RH  023%=      5-min Rain = 0
KNH1 152029Z 03007KT 14/M07 A3014 RMK A01 T01411069  RH  023%=      5-min Rain = 0
KNH1 152030Z 05008KT 14/M07 A3014 RMK A01 T01411067  RH  023%=      5-min Rain = 0
KNH1 152031Z 06006KT 14/M07 A3014 RMK A01 T01401067  RH  023%=      5-min Rain = 0
KNH1 152032Z 06008KT 14/M07 A3014 RMK A01 T01401065  RH  023%=      5-min Rain = 0
KNH1 152033Z 06007G12KT 14/M07 A3014 RMK A01 T01411065  RH  023%=      5-min Rain = 0
KNH1 152034Z 06009KT 14/M07 A3014 RMK A01 T01411065  RH  023%=      5-min Rain = 0
KNH1 152035Z 05007KT 14/M07 A3014 RMK A01 T01411066  RH  023%=      5-min Rain = 0
KNH1 152036Z 05008KT 14/M07 A3014 RMK A01 T01401066  RH  023%=      5-min Rain = 0
KNH1 152037Z 06008KT 14/M07 A3013 RMK A01 T01391065  RH  024%=      5-min Rain = 0
KNH1 152038Z 06006KT 14/M07 A3013 RMK A01 T01401066  RH  023%=      5-min Rain = 0
KNH1 152039Z 05007KT 14/M07 A3013 RMK A01 T01401065  RH  024%=      5-min Rain = 0
KNH1 152040Z 05008KT 14/M06 A3013 RMK A01 T01411062  RH  024%=      5-min Rain = 0
KNH1 152041Z 07009KT 14/M06 A3013 RMK A01 T01421063  RH  024%=      5-min Rain = 0
KNH1 152042Z 07010KT 14/M06 A3013 RMK A01 T01411063  RH  024%=      5-min Rain = 0
KNH1 152043Z 06007KT 14/M06 A3013 RMK A01 T01401062  RH  024%=      5-min Rain = 0
KNH1 152044Z 05009KT 14/M06 A3013 RMK A01 T01401061  RH  024%=      5-min Rain = 0
KNH1 152045Z 06009KT 14/M06 A3013 RMK A01 T01401062  RH  024%=      5-min Rain = 0
KNH1 152046Z 07010KT 14/M06 A3013 RMK A01 T01391063  RH  024%=      5-min Rain = 0
KNH1 152047Z 07010KT 14/M06 A3013 RMK A01 T01381064  RH  024%=      5-min Rain = 0
KNH1 152048Z 07009KT 14/M06 A3013 RMK A01 T01391062  RH  024%=      5-min Rain = 0
KNH1 152049Z 06007KT 14/M06 A3013 RMK A01 T01391061  RH  024%=      5-min Rain = 0
KNH1 152050Z 05006KT 14/M06 A3013 RMK A01 T01401060  RH  025%=      5-min Rain = 0
KNH1 152051Z 05009KT 14/M06 A3013 RMK A01 T01401059  RH  025%=      5-min Rain = 0
KNH1 152052Z 06010KT 14/M06 A3013 RMK A01 T01411063  RH  024%=      5-min Rain = 0
KNH1 152053Z 06008KT 14/M06 A3013 RMK A01 T01391064  RH  024%=      5-min Rain = 0
KNH1 152054Z 07008KT 14/M06 A3013 RMK A01 T01391061  RH  025%=      5-min Rain = 0
KNH1 152055Z 07008KT 14/M06 A3013 RMK A01 T01401061  RH  024%=      5-min Rain = 0
KNH1 152056Z 06008KT 14/M06 A3013 RMK A01 T01411061  RH  024%=      5-min Rain = 0
KNH1 152057Z 06006KT 14/M06 A3014 RMK A01 T01401061  RH  024%=      5-min Rain = 0
KNH1 152058Z 07008KT 14/M06 A3014 RMK A01 T01401060  RH  025%=      5-min Rain = 0
KNH1 152059Z 08007KT 14/M06 A3014 RMK A01 T01401059  RH  025%=      5-min Rain = 0
KNH1 152100Z 07008KT 14/M06 A3014 RMK A01 T01391058  RH  025%=      5-min Rain = 0
KNH1 152101Z 07005KT 14/M06 A3015 RMK A01 T01391057  RH  025%=      5-min Rain = 0
KNH1 152102Z 08006KT 14/M06 A3015 RMK A01 T01401055  RH  025%=      5-min Rain = 0
KNH1 152103Z 07008KT 14/M06 A3015 RMK A01 T01411056  RH  025%=      5-min Rain = 0
KNH1 152104Z 10007KT 14/M06 A3015 RMK A01 T01411056  RH  025%=      5-min Rain = 0
KNH1 152105Z 10008KT 14/M06 A3015 RMK A01 T01411056  RH  025%=      5-min Rain = 0
KNH1 152106Z 08007KT 14/M06 A3015 RMK A01 T01411057  RH  025%=      5-min Rain = 0
KNH1 152107Z 08007KT 14/M06 A3015 RMK A01 T01411056  RH  025%=      5-min Rain = 0
KNH1 152108Z 09006KT 14/M06 A3015 RMK A01 T01411055  RH  025%=      5-min Rain = 0
KNH1 152109Z 08005KT 14/M06 A3015 RMK A01 T01401055  RH  025%=      5-min Rain = 0
KNH1 152110Z 08006KT 14/M06 A3015 RMK A01 T01401058  RH  025%=      5-min Rain = 0
KNH1 152111Z 07006KT 14/M06 A3015 RMK A01 T01391056  RH  025%=      5-min Rain = 0
KNH1 152112Z 08007KT 14/M06 A3015 RMK A01 T01391056  RH  025%=      5-min Rain = 0
KNH1 152113Z 08008KT 14/M06 A3015 RMK A01 T01391057  RH  025%=      5-min Rain = 0
KNH1 152114Z 08007KT 14/M06 A3015 RMK A01 T01391057  RH  025%=      5-min Rain = 0
KNH1 152115Z 09006KT 14/M06 A3015 RMK A01 T01391058  RH  025%=      5-min Rain = 0
KNH1 152116Z 08006KT 14/M06 A3015 RMK A01 T01381055  RH  026%=      5-min Rain = 0
KNH1 152117Z 07007KT 14/M05 A3015 RMK A01 T01391054  RH  026%=      5-min Rain = 0
KNH1 152118Z 07008KT 14/M06 A3015 RMK A01 T01391057  RH  025%=      5-min Rain = 0
KNH1 152119Z 07007KT 14/M06 A3015 RMK A01 T01391059  RH  025%=      5-min Rain = 0
KNH1 152120Z 06006KT 14/M06 A3015 RMK A01 T01401058  RH  025%=      5-min Rain = 0
KNH1 152121Z 07004KT 14/M06 A3015 RMK A01 T01391059  RH  025%=      5-min Rain = 0
KNH1 152122Z 06005KT 14/M06 A3015 RMK A01 T01401056  RH  025%=      5-min Rain = 0
KNH1 152123Z 06007KT 14/M06 A3015 RMK A01 T01401058  RH  025%=      5-min Rain = 0
KNH1 152124Z 07006KT 14/M06 A3015 RMK A01 T01411058  RH  025%=      5-min Rain = 0
KNH1 152125Z 08007KT 14/M06 A3015 RMK A01 T01411059  RH  025%=      5-min Rain = 0
KNH1 152126Z 07007KT 14/M06 A3015 RMK A01 T01411062  RH  024%=      5-min Rain = 0
KNH1 152127Z 07006KT 14/M06 A3015 RMK A01 T01401062  RH  024%=      5-min Rain = 0
KNH1 152128Z 07007KT 14/M06 A3015 RMK A01 T01401064  RH  024%=      5-min Rain = 0
KNH1 152129Z 07008KT 14/M06 A3015 RMK A01 T01401061  RH  024%=      5-min Rain = 0
KNH1 152130Z 06006KT 14/M06 A3015 RMK A01 T01391062  RH  024%=      5-min Rain = 0
KNH1 152131Z 05007KT 14/M06 A3015 RMK A01 T01391061  RH  024%=      5-min Rain = 0
KNH1 152132Z 04007KT 14/M06 A3015 RMK A01 T01391063  RH  024%=      5-min Rain = 0
KNH1 152133Z 05007KT 14/M06 A3015 RMK A01 T01381062  RH  024%=      5-min Rain = 0
KNH1 152134Z 06008KT 14/M06 A3015 RMK A01 T01391063  RH  024%=      5-min Rain = 0
KNH1 152135Z 05007KT 14/M06 A3015 RMK A01 T01391062  RH  024%=      5-min Rain = 0
KNH1 152136Z 05006KT 14/M06 A3015 RMK A01 T01391063  RH  024%=      5-min Rain = 0
KNH1 152137Z 04007KT 14/M06 A3015 RMK A01 T01391062  RH  024%=      5-min Rain = 0
KNH1 152138Z 05008KT 14/M06 A3015 RMK A01 T01391061  RH  024%=      5-min Rain = 0
KNH1 152139Z 06007KT 14/M06 A3015 RMK A01 T01391061  RH  025%=      5-min Rain = 0
KNH1 152140Z 06007KT 14/M06 A3015 RMK A01 T01391061  RH  024%=      5-min Rain = 0
KNH1 152141Z 05008KT 14/M06 A3015 RMK A01 T01381062  RH  024%=      5-min Rain = 0
KNH1 152142Z 06008KT 14/M06 A3015 RMK A01 T01391062  RH  024%=      5-min Rain = 0
KNH1 152143Z 06008KT 14/M06 A3015 RMK A01 T01381062  RH  024%=      5-min Rain = 0
KNH1 152144Z 05007KT 14/M06 A3015 RMK A01 T01381061  RH  025%=      5-min Rain = 0
KNH1 152145Z 05006KT 14/M06 A3015 RMK A01 T01381061  RH  025%=      5-min Rain = 0
KNH1 152146Z 05005KT 14/M06 A3015 RMK A01 T01381060  RH  025%=      5-min Rain = 0
KNH1 152147Z 04006KT 14/M06 A3015 RMK A01 T01381058  RH  025%=      5-min Rain = 0
KNH1 152148Z 04006KT 14/M06 A3015 RMK A01 T01381060  RH  025%=      5-min Rain = 0
KNH1 152149Z 05006KT 14/M06 A3015 RMK A01 T01391058  RH  025%=      5-min Rain = 0
KNH1 152150Z 05006KT 14/M06 A3015 RMK A01 T01391057  RH  025%=      5-min Rain = 0
KNH1 152151Z 05005KT 14/M06 A3015 RMK A01 T01381059  RH  025%=      5-min Rain = 0
KNH1 152152Z 05005KT 14/M06 A3015 RMK A01 T01381058  RH  025%=      5-min Rain = 0
KNH1 152153Z 05006KT 14/M06 A3015 RMK A01 T01391055  RH  026%=      5-min Rain = 0
KNH1 152154Z 04006KT 14/M06 A3015 RMK A01 T01401056  RH  025%=      5-min Rain = 0
KNH1 152155Z 04006KT 14/M06 A3015 RMK A01 T01401057  RH  025%=      5-min Rain = 0
KNH1 152156Z 04006KT 14/M06 A3015 RMK A01 T01401055  RH  025%=      5-min Rain = 0
KNH1 152157Z 03007KT 14/M06 A3015 RMK A01 T01411057  RH  025%=      5-min Rain = 0
KNH1 152158Z 05007KT 14/M06 A3015 RMK A01 T01411057  RH  025%=      5-min Rain = 0
KNH1 152159Z 05007KT 14/M06 A3015 RMK A01 T01401057  RH  025%=      5-min Rain = 0
KNH1 152200Z 06007KT 14/M06 A3015 RMK A01 T01401058  RH  025%=      5-min Rain = 0
KNH1 152201Z 05005KT 14/M06 A3015 RMK A01 T01391057  RH  025%=      5-min Rain = 0
KNH1 152202Z 04006KT 14/M06 A3015 RMK A01 T01401056  RH  025%=      5-min Rain = 0
KNH1 152203Z 04006KT 14/M06 A3015 RMK A01 T01401055  RH  025%=      5-min Rain = 0
KNH1 152204Z 03008KT 14/M05 A3015 RMK A01 T01411054  RH  025%=      5-min Rain = 0
KNH1 152205Z 03008KT 14/M06 A3015 RMK A01 T01411056  RH  025%=      5-min Rain = 0
KNH1 152206Z 05007KT 14/M06 A3015 RMK A01 T01401057  RH  025%=      5-min Rain = 0
KNH1 152207Z 05007KT 14/M06 A3016 RMK A01 T01401057  RH  025%=      5-min Rain = 0
KNH1 152208Z 05006KT 14/M06 A3016 RMK A01 T01391055  RH  026%=      5-min Rain = 0
KNH1 152209Z 05007KT 14/M05 A3016 RMK A01 T01401054  RH  026%=      5-min Rain = 0
KNH1 152210Z 04007KT 14/M06 A3016 RMK A01 T01401055  RH  025%=      5-min Rain = 0
KNH1 152211Z 03007KT 14/M06 A3016 RMK A01 T01401055  RH  026%=      5-min Rain = 0
KNH1 152212Z 03007KT 14/M06 A3016 RMK A01 T01401055  RH  025%=      5-min Rain = 0
KNH1 152213Z 03008KT 14/M06 A3016 RMK A01 T01391055  RH  025%=      5-min Rain = 0
KNH1 152214Z 03009KT 14/M05 A3016 RMK A01 T01391054  RH  026%=      5-min Rain = 0
KNH1 152215Z 04009KT 14/M05 A3015 RMK A01 T01391054  RH  026%=      5-min Rain = 0
KNH1 152216Z 04008KT 14/M05 A3015 RMK A01 T01391054  RH  026%=      5-min Rain = 0
KNH1 152217Z 03008KT 14/M05 A3015 RMK A01 T01391053  RH  026%=      5-min Rain = 0
KNH1 152218Z 03009KT 14/M05 A3015 RMK A01 T01391054  RH  026%=      5-min Rain = 0
KNH1 152219Z 03007KT 14/M05 A3015 RMK A01 T01381054  RH  026%=      5-min Rain = 0
KNH1 152220Z 04007KT 14/M05 A3015 RMK A01 T01381053  RH  026%=      5-min Rain = 0
KNH1 152221Z 04007KT 14/M05 A3016 RMK A01 T01381053  RH  026%=      5-min Rain = 0
KNH1 152222Z 05007KT 14/M05 A3016 RMK A01 T01371054  RH  026%=      5-min Rain = 0
KNH1 152223Z 04008KT 14/M05 A3016 RMK A01 T01371052  RH  027%=      5-min Rain = 0
KNH1 152224Z 04009KT 14/M05 A3016 RMK A01 T01371052  RH  027%=      5-min Rain = 0
KNH1 152225Z 04007KT 14/M05 A3016 RMK A01 T01371051  RH  027%=      5-min Rain = 0
KNH1 152226Z 04009KT 14/M05 A3016 RMK A01 T01371051  RH  027%=      5-min Rain = 0
KNH1 152227Z 04008KT 14/M05 A3016 RMK A01 T01361052  RH  027%=      5-min Rain = 0
KNH1 152228Z 04008KT 14/M05 A3016 RMK A01 T01351052  RH  027%=      5-min Rain = 0
KNH1 152229Z 03009KT 14/M05 A3016 RMK A01 T01351053  RH  027%=      5-min Rain = 0
KNH1 152230Z 03009KT 13/M05 A3016 RMK A01 T01341052  RH  027%=      5-min Rain = 0
KNH1 152236Z 03008KT 13/M05 A3016 RMK A01 T01321051  RH  028%=      5-min Rain = 0
KNH1 152237Z 04010KT 13/M05 A3016 RMK A01 T01321050  RH  028%=      5-min Rain = 0
KNH1 152238Z 05009KT 13/M05 A3016 RMK A01 T01311052  RH  028%=      5-min Rain = 0
KNH1 152239Z 05009KT 13/M05 A3016 RMK A01 T01301052  RH  028%=      5-min Rain = 0
KNH1 152240Z 04010KT 13/M05 A3016 RMK A01 T01301053  RH  028%=      5-min Rain = 0
KNH1 152241Z 04009KT 13/M05 A3016 RMK A01 T01291054  RH  028%=      5-min Rain = 0
KNH1 152242Z 04008KT 13/M05 A3016 RMK A01 T01291053  RH  028%=      5-min Rain = 0
KNH1 152243Z 03008KT 13/M05 A3016 RMK A01 T01291052  RH  028%=      5-min Rain = 0
KNH1 152244Z 03009KT 13/M05 A3016 RMK A01 T01291053  RH  028%=      5-min Rain = 0
KNH1 152245Z 03009KT 13/M05 A3016 RMK A01 T01281053  RH  028%=      5-min Rain = 0
KNH1 152246Z 03010KT 13/M05 A3016 RMK A01 T01281054  RH  028%=      5-min Rain = 0
KNH1 152247Z 03010KT 13/M06 A3016 RMK A01 T01271055  RH  028%=      5-min Rain = 0
KNH1 152248Z 04009KT 13/M06 A3016 RMK A01 T01271055  RH  028%=      5-min Rain = 0
KNH1 152249Z 04008KT 13/M06 A3017 RMK A01 T01271055  RH  028%=      5-min Rain = 0
KNH1 152250Z 04009KT 13/M05 A3017 RMK A01 T01271054  RH  028%=      5-min Rain = 0
KNH1 152251Z 04009KT 13/M06 A3016 RMK A01 T01271055  RH  028%=      5-min Rain = 0
KNH1 152252Z 04009KT 13/M06 A3017 RMK A01 T01271056  RH  028%=      5-min Rain = 0
KNH1 152253Z 04009KT 13/M06 A3017 RMK A01 T01271055  RH  028%=      5-min Rain = 0
KNH1 152254Z 05007KT 13/M06 A3017 RMK A01 T01261055  RH  028%=      5-min Rain = 0
KNH1 152255Z 05008KT 13/M05 A3017 RMK A01 T01271054  RH  028%=      5-min Rain = 0
KNH1 152256Z 05008KT 13/M05 A3016 RMK A01 T01271054  RH  028%=      5-min Rain = 0
KNH1 152257Z 05010KT 13/M06 A3016 RMK A01 T01271055  RH  028%=      5-min Rain = 0
KNH1 152258Z 05007KT 13/M06 A3016 RMK A01 T01271055  RH  028%=      5-min Rain = 0
KNH1 152259Z 05008KT 13/M06 A3016 RMK A01 T01271055  RH  028%=      5-min Rain = 0
KNH1 152300Z 05006KT 13/M05 A3016 RMK A01 T01271054  RH  028%=      5-min Rain = 0
KNH1 152301Z 04007KT 13/M05 A3016 RMK A01 T01271053  RH  028%=      5-min Rain = 0
KNH1 152302Z 05007KT 13/M05 A3016 RMK A01 T01261052  RH  028%=      5-min Rain = 0
KNH1 152303Z 05009KT 13/M05 A3016 RMK A01 T01271053  RH  028%=      5-min Rain = 0
KNH1 152304Z 05008KT 13/M05 A3016 RMK A01 T01261053  RH  028%=      5-min Rain = 0
KNH1 152305Z 05006KT 13/M05 A3016 RMK A01 T01261051  RH  029%=      5-min Rain = 0
KNH1 152306Z 05006KT 13/M05 A3016 RMK A01 T01251051  RH  029%=      5-min Rain = 0
KNH1 152307Z 05008KT 13/M05 A3016 RMK A01 T01251050  RH  029%=      5-min Rain = 0
KNH1 152308Z 04006KT 13/M05 A3016 RMK A01 T01251050  RH  029%=      5-min Rain = 0
KNH1 152309Z 06007KT 13/M05 A3016 RMK A01 T01251050  RH  029%=      5-min Rain = 0
KNH1 152310Z 05008KT 13/M05 A3016 RMK A01 T01251051  RH  029%=      5-min Rain = 0
KNH1 152311Z 05007KT 13/M05 A3016 RMK A01 T01251050  RH  029%=      5-min Rain = 0
KNH1 152312Z 05008KT 13/M05 A3016 RMK A01 T01251051  RH  029%=      5-min Rain = 0
KNH1 152313Z 06009KT 13/M05 A3017 RMK A01 T01251052  RH  029%=      5-min Rain = 0
KNH1 152314Z 06007KT 12/M05 A3017 RMK A01 T01241053  RH  029%=      5-min Rain = 0
KNH1 152315Z 06007KT 12/M05 A3017 RMK A01 T01241053  RH  029%=      5-min Rain = 0
KNH1 152316Z 06008KT 12/M05 A3017 RMK A01 T01241054  RH  029%=      5-min Rain = 0
KNH1 152317Z 05008KT 12/M05 A3016 RMK A01 T01241054  RH  028%=      5-min Rain = 0
KNH1 152318Z 05008KT 12/M05 A3016 RMK A01 T01241054  RH  028%=      5-min Rain = 0
KNH1 152319Z 06007KT 12/M05 A3017 RMK A01 T01241053  RH  029%=      5-min Rain = 0
KNH1 152320Z 06006KT 12/M05 A3017 RMK A01 T01241052  RH  029%=      5-min Rain = 0
KNH1 152321Z 06007KT 12/M05 A3017 RMK A01 T01231052  RH  029%=      5-min Rain = 0
KNH1 152322Z 06008KT 12/M05 A3017 RMK A01 T01231053  RH  029%=      5-min Rain = 0
KNH1 152323Z 06008KT 12/M05 A3017 RMK A01 T01231054  RH  029%=      5-min Rain = 0
KNH1 152324Z 06008KT 12/M05 A3017 RMK A01 T01231054  RH  029%=      5-min Rain = 0
KNH1 152325Z 07008KT 12/M05 A3017 RMK A01 T01231054  RH  029%=      5-min Rain = 0
KNH1 152326Z 07007KT 12/M05 A3017 RMK A01 T01231053  RH  029%=      5-min Rain = 0
KNH1 152327Z 07008KT 12/M05 A3017 RMK A01 T01221052  RH  029%=      5-min Rain = 0
KNH1 152328Z 07009KT 12/M05 A3017 RMK A01 T01221053  RH  029%=      5-min Rain = 0
KNH1 152329Z 08008KT 12/M05 A3017 RMK A01 T01221053  RH  029%=      5-min Rain = 0
KNH1 152330Z 08010KT 12/M05 A3017 RMK A01 T01221053  RH  029%=      5-min Rain = 0
KNH1 152331Z 08007KT 12/M05 A3017 RMK A01 T01211053  RH  029%=      5-min Rain = 0
KNH1 152332Z 07009KT 12/M05 A3017 RMK A01 T01211052  RH  030%=      5-min Rain = 0
KNH1 152333Z 07008KT 12/M05 A3017 RMK A01 T01211052  RH  030%=      5-min Rain = 0
KNH1 152334Z 07009KT 12/M05 A3017 RMK A01 T01211052  RH  029%=      5-min Rain = 0
KNH1 152335Z 07008KT 12/M05 A3017 RMK A01 T01211053  RH  029%=      5-min Rain = 0
KNH1 152336Z 08007KT 12/M05 A3017 RMK A01 T01201053  RH  029%=      5-min Rain = 0
KNH1 152337Z 08009KT 12/M05 A3017 RMK A01 T01201052  RH  030%=      5-min Rain = 0
KNH1 152338Z 08009KT 12/M05 A3017 RMK A01 T01201052  RH  030%=      5-min Rain = 0
KNH1 152339Z 07008KT 12/M05 A3017 RMK A01 T01201052  RH  030%=      5-min Rain = 0
KNH1 152340Z 07008KT 12/M05 A3017 RMK A01 T01191051  RH  030%=      5-min Rain = 0
KNH1 152341Z 08008KT 12/M05 A3017 RMK A01 T01191050  RH  030%=      5-min Rain = 0
KNH1 152342Z 08008KT 12/M05 A3018 RMK A01 T01181051  RH  030%=      5-min Rain = 0
KNH1 152343Z 08009KT 12/M05 A3018 RMK A01 T01181051  RH  030%=      5-min Rain = 0
KNH1 152344Z 07008KT 12/M05 A3017 RMK A01 T01181050  RH  030%=      5-min Rain = 0
KNH1 152345Z 07007KT 12/M05 A3017 RMK A01 T01181051  RH  030%=      5-min Rain = 0
KNH1 152346Z 06006KT 12/M05 A3017 RMK A01 T01181050  RH  030%=      5-min Rain = 0
KNH1 152347Z 07007KT 12/M05 A3017 RMK A01 T01181051  RH  030%=      5-min Rain = 0
KNH1 152348Z 07006KT 12/M05 A3018 RMK A01 T01181052  RH  030%=      5-min Rain = 0
KNH1 152349Z 07008KT 12/M05 A3018 RMK A01 T01181051  RH  030%=      5-min Rain = 0
KNH1 152350Z 07009KT 12/M05 A3018 RMK A01 T01181051  RH  030%=      5-min Rain = 0
KNH1 152351Z 06008KT 12/M05 A3018 RMK A01 T01181052  RH  030%=      5-min Rain = 0
KNH1 152352Z 06007KT 12/M05 A3018 RMK A01 T01181051  RH  030%=      5-min Rain = 0
KNH1 152353Z 06008KT 12/M05 A3017 RMK A01 T01181051  RH  030%=      5-min Rain = 0
KNH1 152354Z 06007KT 12/M05 A3017 RMK A01 T01171052  RH  030%=      5-min Rain = 0
KNH1 152355Z 06008KT 12/M05 A3017 RMK A01 T01171053  RH  030%=      5-min Rain = 0
KNH1 152356Z 07008KT 12/M05 A3017 RMK A01 T01171053  RH  030%=      5-min Rain = 0
KNH1 152357Z 07009KT 12/M05 A3018 RMK A01 T01171053  RH  030%=      5-min Rain = 0
KNH1 152358Z 07009KT 12/M05 A3018 RMK A01 T01171053  RH  030%=      5-min Rain = 0
KNH1 152359Z 07009KT 12/M05 A3018 RMK A01 T01161054  RH  030%=      5-min Rain = 0
KNH1 160000Z 07008KT 12/M05 A3018 RMK A01 T01161053  RH  030%=      5-min Rain = 0
KNH1 160001Z 07008KT 12/M05 A3018 RMK A01 T01161053  RH  030%=      5-min Rain = 0
KNH1 160002Z 07008KT 12/M05 A3018 RMK A01 T01161053  RH  030%=      5-min Rain = 0
KNH1 160003Z 07008KT 12/M05 A3018 RMK A01 T01161053  RH  030%=      5-min Rain = 0
KNH1 160004Z 07007KT 12/M05 A3018 RMK A01 T01151054  RH  030%=      5-min Rain = 0
KNH1 160005Z 06006KT 12/M05 A3018 RMK A01 T01151053  RH  030%=      5-min Rain = 0
KNH1 160006Z 06006KT 12/M05 A3018 RMK A01 T01151053  RH  030%=      5-min Rain = 0
KNH1 160007Z 07007KT 12/M05 A3018 RMK A01 T01151053  RH  031%=      5-min Rain = 0
KNH1 160008Z 06007KT 11/M05 A3018 RMK A01 T01141053  RH  031%=      5-min Rain = 0
KNH1 160009Z 06006KT 11/M05 A3018 RMK A01 T01141052  RH  031%=      5-min Rain = 0
KNH1 160010Z 05006KT 11/M05 A3018 RMK A01 T01131052  RH  031%=      5-min Rain = 0
KNH1 160011Z 05007KT 11/M05 A3018 RMK A01 T01131052  RH  031%=      5-min Rain = 0
KNH1 160012Z 05007KT 11/M05 A3018 RMK A01 T01121052  RH  031%=      5-min Rain = 0
KNH1 160013Z 04006KT 11/M05 A3018 RMK A01 T01121052  RH  031%=      5-min Rain = 0
KNH1 160014Z 05006KT 11/M05 A3019 RMK A01 T01121051  RH  031%=      5-min Rain = 0
KNH1 160015Z 05006KT 11/M05 A3019 RMK A01 T01121051  RH  032%=      5-min Rain = 0
KNH1 160016Z 04006KT 11/M05 A3019 RMK A01 T01111051  RH  032%=      5-min Rain = 0
KNH1 160017Z 04007KT 11/M05 A3019 RMK A01 T01111051  RH  032%=      5-min Rain = 0
KNH1 160018Z 04006KT 11/M05 A3019 RMK A01 T01111051  RH  032%=      5-min Rain = 0
KNH1 160019Z 04007KT 11/M05 A3019 RMK A01 T01101051  RH  032%=      5-min Rain = 0
KNH1 160020Z 04007KT 11/M05 A3019 RMK A01 T01091050  RH  032%=      5-min Rain = 0
KNH1 160021Z 04007KT 11/M05 A3019 RMK A01 T01091050  RH  032%=      5-min Rain = 0
KNH1 160022Z 04007KT 11/M05 A3019 RMK A01 T01091051  RH  032%=      5-min Rain = 0
KNH1 160023Z 04007KT 11/M05 A3019 RMK A01 T01091051  RH  032%=      5-min Rain = 0
KNH1 160024Z 03007KT 11/M05 A3019 RMK A01 T01091051  RH  032%=      5-min Rain = 0
KNH1 160025Z 03008KT 11/M05 A3019 RMK A01 T01091051  RH  032%=      5-min Rain = 0
KNH1 160026Z 04008KT 11/M05 A3019 RMK A01 T01091051  RH  032%=      5-min Rain = 0
KNH1 160027Z 04007KT 11/M05 A3019 RMK A01 T01091051  RH  032%=      5-min Rain = 0
KNH1 160028Z 04007KT 11/M05 A3019 RMK A01 T01081051  RH  032%=      5-min Rain = 0
KNH1 160029Z 04007KT 11/M05 A3019 RMK A01 T01081051  RH  032%=      5-min Rain = 0
KNH1 160030Z 04008KT 11/M05 A3019 RMK A01 T01081051  RH  032%=      5-min Rain = 0
KNH1 160031Z 04008KT 11/M05 A3019 RMK A01 T01081052  RH  032%=      5-min Rain = 0
KNH1 160032Z 04007KT 11/M05 A3019 RMK A01 T01081053  RH  032%=      5-min Rain = 0
KNH1 160033Z 03008KT 11/M05 A3019 RMK A01 T01081052  RH  032%=      5-min Rain = 0
KNH1 160034Z 03007KT 11/M05 A3019 RMK A01 T01081052  RH  032%=      5-min Rain = 0
KNH1 160035Z 03007KT 11/M05 A3019 RMK A01 T01081053  RH  032%=      5-min Rain = 0
KNH1 160036Z 03008KT 11/M05 A3019 RMK A01 T01081053  RH  032%=      5-min Rain = 0
KNH1 160037Z 03008KT 11/M05 A3019 RMK A01 T01081054  RH  032%=      5-min Rain = 0
KNH1 160038Z 04008KT 11/M05 A3019 RMK A01 T01081053  RH  032%=      5-min Rain = 0
KNH1 160039Z 04008KT 11/M05 A3019 RMK A01 T01071053  RH  032%=      5-min Rain = 0
KNH1 160040Z 04008KT 11/M05 A3019 RMK A01 T01071053  RH  032%=      5-min Rain = 0
KNH1 160041Z 04009KT 11/M05 A3019 RMK A01 T01071053  RH  032%=      5-min Rain = 0
KNH1 160042Z 04008KT 11/M05 A3019 RMK A01 T01071053  RH  032%=      5-min Rain = 0
KNH1 160043Z 04008KT 11/M05 A3019 RMK A01 T01071053  RH  032%=      5-min Rain = 0
KNH1 160044Z 04008KT 11/M05 A3019 RMK A01 T01071053  RH  032%=      5-min Rain = 0
KNH1 160045Z 03009KT 11/M05 A3019 RMK A01 T01071053  RH  032%=      5-min Rain = 0
KNH1 160046Z 03009KT 11/M05 A3019 RMK A01 T01061054  RH  032%=      5-min Rain = 0
KNH1 160047Z 03008KT 11/M05 A3019 RMK A01 T01071053  RH  032%=      5-min Rain = 0
KNH1 160048Z 03009KT 11/M05 A3019 RMK A01 T01061054  RH  032%=      5-min Rain = 0
KNH1 160049Z 03010KT 11/M05 A3019 RMK A01 T01061054  RH  032%=      5-min Rain = 0
KNH1 160050Z 03011KT 11/M05 A3019 RMK A01 T01061054  RH  032%=      5-min Rain = 0
KNH1 160051Z 03009KT 11/M06 A3019 RMK A01 T01061055  RH  032%=      5-min Rain = 0
KNH1 160052Z 03010KT 11/M06 A3019 RMK A01 T01061055  RH  032%=      5-min Rain = 0
KNH1 160053Z 03010KT 11/M05 A302 RMK A01 T01061054  RH  032%=      5-min Rain = 0
KNH1 160054Z 03009KT 11/M05 A302 RMK A01 T01061054  RH  032%=      5-min Rain = 0
KNH1 160055Z 03009KT 11/M05 A302 RMK A01 T01061053  RH  032%=      5-min Rain = 0
KNH1 160056Z 03010KT 11/M05 A302 RMK A01 T01051054  RH  032%=      5-min Rain = 0
KNH1 160057Z 03010KT 11/M05 A302 RMK A01 T01051053  RH  032%=      5-min Rain = 0
KNH1 160058Z 03010KT 10/M05 A302 RMK A01 T01041053  RH  033%=      5-min Rain = 0
KNH1 160059Z 03009KT 10/M05 A302 RMK A01 T01041053  RH  033%=      5-min Rain = 0
KNH1 160100Z 04009KT 10/M05 A302 RMK A01 T01041053  RH  033%=      5-min Rain = 0
KNH1 160101Z 04012KT 10/M05 A302 RMK A01 T01041053  RH  033%=      5-min Rain = 0
KNH1 160102Z 04010KT 10/M05 A302 RMK A01 T01031053  RH  033%=      5-min Rain = 0
KNH1 160103Z 04010KT 10/M05 A302 RMK A01 T01031053  RH  033%=      5-min Rain = 0
KNH1 160104Z 03011KT 10/M05 A302 RMK A01 T01031053  RH  033%=      5-min Rain = 0
KNH1 160105Z 04010KT 10/M05 A302 RMK A01 T01031053  RH  033%=      5-min Rain = 0
KNH1 160106Z 04009KT 10/M05 A302 RMK A01 T01031052  RH  033%=      5-min Rain = 0
KNH1 160107Z 04011KT 10/M05 A302 RMK A01 T01021052  RH  033%=      5-min Rain = 0
KNH1 160108Z 04012KT 10/M05 A302 RMK A01 T01021053  RH  033%=      5-min Rain = 0
KNH1 160109Z 04011KT 10/M05 A302 RMK A01 T01021052  RH  033%=      5-min Rain = 0
KNH1 160110Z 04011KT 10/M05 A302 RMK A01 T01021052  RH  033%=      5-min Rain = 0
KNH1 160111Z 05010KT 10/M05 A302 RMK A01 T01011052  RH  034%=      5-min Rain = 0
KNH1 160112Z 04009KT 10/M05 A302 RMK A01 T01011052  RH  034%=      5-min Rain = 0
KNH1 160113Z 04009KT 10/M05 A302 RMK A01 T01011051  RH  034%=      5-min Rain = 0
KNH1 160114Z 04008KT 10/M05 A302 RMK A01 T01001051  RH  034%=      5-min Rain = 0
KNH1 160115Z 04008KT 10/M05 A302 RMK A01 T01001051  RH  034%=      5-min Rain = 0
KNH1 160116Z 04008KT 10/M05 A302 RMK A01 T00991050  RH  034%=      5-min Rain = 0
KNH1 160117Z 05008KT 10/M05 A302 RMK A01 T00991050  RH  034%=      5-min Rain = 0
KNH1 160118Z 06008KT 10/M05 A3021 RMK A01 T00991050  RH  035%=      5-min Rain = 0
KNH1 160119Z 07007KT 10/M05 A3021 RMK A01 T00991050  RH  035%=      5-min Rain = 0
KNH1 160120Z 08007KT 10/M05 A3021 RMK A01 T00981050  RH  035%=      5-min Rain = 0
KNH1 160121Z 07008KT 10/M05 A3021 RMK A01 T00981050  RH  035%=      5-min Rain = 0
KNH1 160122Z 07008KT 10/M05 A3021 RMK A01 T00981049  RH  035%=      5-min Rain = 0
KNH1 160123Z 07008KT 10/M05 A3021 RMK A01 T00971049  RH  035%=      5-min Rain = 0
KNH1 160124Z 06008KT 10/M05 A3021 RMK A01 T00971049  RH  035%=      5-min Rain = 0
KNH1 160125Z 06006KT 10/M05 A3021 RMK A01 T00971049  RH  035%=      5-min Rain = 0
KNH1 160126Z 06006KT 10/M05 A3022 RMK A01 T00971049  RH  035%=      5-min Rain = 0
KNH1 160127Z 06006KT 10/M05 A3022 RMK A01 T00971049  RH  035%=      5-min Rain = 0
KNH1 160128Z 07007KT 10/M05 A3022 RMK A01 T00971049  RH  035%=      5-min Rain = 0
KNH1 160129Z 07008KT 10/M05 A3022 RMK A01 T00961049  RH  035%=      5-min Rain = 0
KNH1 160130Z 06008KT 10/M05 A3022 RMK A01 T00961050  RH  035%=      5-min Rain = 0
KNH1 160131Z 05011KT 10/M05 A3022 RMK A01 T00961050  RH  035%=      5-min Rain = 0
KNH1 160132Z 04010KT 10/M05 A3022 RMK A01 T00961050  RH  035%=      5-min Rain = 0
KNH1 160133Z 04011KT 10/M05 A3021 RMK A01 T00961050  RH  035%=      5-min Rain = 0
KNH1 160134Z 05008KT 10/M05 A3021 RMK A01 T00961050  RH  035%=      5-min Rain = 0
KNH1 160135Z 05010KT 10/M05 A3022 RMK A01 T00961050  RH  035%=      5-min Rain = 0
KNH1 160136Z 07010KT 10/M05 A3022 RMK A01 T00961050  RH  035%=      5-min Rain = 0
KNH1 160137Z 07008KT 10/M05 A3023 RMK A01 T00961050  RH  035%=      5-min Rain = 0
KNH1 160138Z 07012KT 10/M05 A3023 RMK A01 T00961050  RH  035%=      5-min Rain = 0
KNH1 160139Z 06009KT 10/M05 A3022 RMK A01 T00961050  RH  035%=      5-min Rain = 0
KNH1 160140Z 05010KT 10/M05 A3022 RMK A01 T00951050  RH  036%=      5-min Rain = 0
KNH1 160141Z 05010KT 10/M05 A3022 RMK A01 T00951050  RH  036%=      5-min Rain = 0
KNH1 160142Z 05010KT 10/M05 A3022 RMK A01 T00951050  RH  036%=      5-min Rain = 0
KNH1 160143Z 06010KT 10/M05 A3022 RMK A01 T00951049  RH  036%=      5-min Rain = 0
KNH1 160144Z 06010KT 09/M05 A3022 RMK A01 T00941050  RH  036%=      5-min Rain = 0
KNH1 160145Z 07010KT 10/M05 A3022 RMK A01 T00951050  RH  036%=      5-min Rain = 0
KNH1 160146Z 06011KT 09/M05 A3022 RMK A01 T00941050  RH  036%=      5-min Rain = 0
KNH1 160147Z 07011KT 09/M05 A3022 RMK A01 T00941050  RH  036%=      5-min Rain = 0
KNH1 160148Z 06011KT 09/M05 A3022 RMK A01 T00941049  RH  036%=      5-min Rain = 0
KNH1 160149Z 05012KT 09/M05 A3022 RMK A01 T00941050  RH  036%=      5-min Rain = 0
KNH1 160150Z 05011KT 09/M05 A3022 RMK A01 T00931050  RH  036%=      5-min Rain = 0
KNH1 160151Z 05010KT 09/M05 A3022 RMK A01 T00941049  RH  036%=      5-min Rain = 0
KNH1 160152Z 05011KT 09/M05 A3022 RMK A01 T00931050  RH  036%=      5-min Rain = 0
KNH1 160153Z 06010KT 09/M05 A3023 RMK A01 T00931049  RH  036%=      5-min Rain = 0
KNH1 160154Z 06010KT 09/M05 A3023 RMK A01 T00931049  RH  036%=      5-min Rain = 0
KNH1 160155Z 06011KT 09/M05 A3023 RMK A01 T00931049  RH  036%=      5-min Rain = 0
KNH1 160156Z 05010KT 09/M05 A3023 RMK A01 T00931049  RH  036%=      5-min Rain = 0
KNH1 160157Z 06008KT 09/M05 A3023 RMK A01 T00921049  RH  037%=      5-min Rain = 0
KNH1 160158Z 06010KT 09/M05 A3023 RMK A01 T00921048  RH  037%=      5-min Rain = 0
KNH1 160159Z 06011KT 09/M05 A3023 RMK A01 T00921048  RH  037%=      5-min Rain = 0
KNH1 160200Z 05010KT 09/M05 A3023 RMK A01 T00921049  RH  037%=      5-min Rain = 0
KNH1 160201Z 06010KT 09/M05 A3023 RMK A01 T00921048  RH  037%=      5-min Rain = 0
KNH1 160202Z 05010KT 09/M05 A3023 RMK A01 T00921048  RH  037%=      5-min Rain = 0
KNH1 160203Z 06009KT 09/M05 A3023 RMK A01 T00921048  RH  037%=      5-min Rain = 0
KNH1 160204Z 06008KT 09/M05 A3023 RMK A01 T00911048  RH  037%=      5-min Rain = 0
KNH1 160205Z 06009G14KT 09/M05 A3023 RMK A01 T00911048  RH  037%=      5-min Rain = 0
KNH1 160206Z 05014G19KT 09/M05 A3023 RMK A01 T00911048  RH  037%=      5-min Rain = 0
KNH1 160207Z 05012KT 09/M05 A3023 RMK A01 T00911049  RH  037%=      5-min Rain = 0
KNH1 160208Z 05010KT 09/M05 A3023 RMK A01 T00901049  RH  037%=      5-min Rain = 0
KNH1 160209Z 05011KT 09/M05 A3023 RMK A01 T00901048  RH  037%=      5-min Rain = 0
KNH1 160210Z 06012G17KT 09/M05 A3024 RMK A01 T00901048  RH  037%=      5-min Rain = 0
KNH1 160211Z 05010KT 09/M05 A3024 RMK A01 T00901048  RH  037%=      5-min Rain = 0
KNH1 160212Z 05009KT 09/M05 A3024 RMK A01 T00901048  RH  038%=      5-min Rain = 0
KNH1 160213Z 05011KT 09/M05 A3024 RMK A01 T00891048  RH  038%=      5-min Rain = 0
KNH1 160214Z 06011KT 09/M05 A3024 RMK A01 T00891048  RH  038%=      5-min Rain = 0
KNH1 160215Z 05009G14KT 09/M05 A3024 RMK A01 T00891048  RH  038%=      5-min Rain = 0
KNH1 160216Z 05009KT 09/M05 A3024 RMK A01 T00891047  RH  038%=      5-min Rain = 0
KNH1 160217Z 05009G14KT 09/M05 A3024 RMK A01 T00881048  RH  038%=      5-min Rain = 0
KNH1 160218Z 06010KT 09/M05 A3024 RMK A01 T00881047  RH  038%=      5-min Rain = 0
KNH1 160219Z 06012KT 09/M05 A3024 RMK A01 T00871048  RH  038%=      5-min Rain = 0
KNH1 160220Z 06010KT 09/M05 A3024 RMK A01 T00881048  RH  038%=      5-min Rain = 0
KNH1 160221Z 06009KT 09/M05 A3025 RMK A01 T00871048  RH  038%=      5-min Rain = 0
KNH1 160222Z 07011KT 09/M05 A3025 RMK A01 T00871048  RH  038%=      5-min Rain = 0
KNH1 160223Z 06010KT 09/M05 A3025 RMK A01 T00871048  RH  038%=      5-min Rain = 0
KNH1 160224Z 05011KT 09/M05 A3024 RMK A01 T00871048  RH  038%=      5-min Rain = 0
KNH1 160225Z 06010KT 09/M05 A3025 RMK A01 T00861048  RH  038%=      5-min Rain = 0
KNH1 160226Z 05009KT 09/M05 A3025 RMK A01 T00861048  RH  038%=      5-min Rain = 0
KNH1 160227Z 06011KT 09/M05 A3025 RMK A01 T00861049  RH  038%=      5-min Rain = 0
KNH1 160228Z 06011KT 09/M05 A3025 RMK A01 T00861049  RH  038%=      5-min Rain = 0
KNH1 160229Z 05010KT 09/M05 A3025 RMK A01 T00861048  RH  038%=      5-min Rain = 0
KNH1 160230Z 05011KT 09/M05 A3025 RMK A01 T00851049  RH  038%=      5-min Rain = 0
KNH1 160231Z 05010KT 09/M05 A3025 RMK A01 T00851048  RH  038%=      5-min Rain = 0
KNH1 160232Z 06011KT 09/M05 A3025 RMK A01 T00851048  RH  039%=      5-min Rain = 0
KNH1 160233Z 06011KT 09/M05 A3025 RMK A01 T00851048  RH  039%=      5-min Rain = 0
KNH1 160234Z 06011KT 09/M05 A3025 RMK A01 T00851048  RH  039%=      5-min Rain = 0
KNH1 160235Z 07010KT 08/M05 A3025 RMK A01 T00841048  RH  039%=      5-min Rain = 0
KNH1 160236Z 06012KT 08/M05 A3025 RMK A01 T00841048  RH  039%=      5-min Rain = 0
KNH1 160237Z 06009KT 08/M05 A3025 RMK A01 T00841048  RH  039%=      5-min Rain = 0
KNH1 160238Z 06008KT 08/M05 A3025 RMK A01 T00841047  RH  039%=      5-min Rain = 0
KNH1 160239Z 06012KT 08/M05 A3025 RMK A01 T00841047  RH  039%=      5-min Rain = 0
KNH1 160240Z 06011KT 08/M05 A3025 RMK A01 T00841047  RH  039%=      5-min Rain = 0
KNH1 160241Z 06010KT 08/M05 A3025 RMK A01 T00841047  RH  039%=      5-min Rain = 0
KNH1 160242Z 06011KT 08/M05 A3025 RMK A01 T00831047  RH  039%=      5-min Rain = 0
KNH1 160243Z 06011G16KT 08/M05 A3025 RMK A01 T00841047  RH  039%=      5-min Rain = 0
KNH1 160244Z 07010KT 08/M05 A3025 RMK A01 T00831047  RH  039%=      5-min Rain = 0
KNH1 160245Z 06009G14KT 08/M05 A3026 RMK A01 T00831046  RH  040%=      5-min Rain = 0
KNH1 160246Z 06011KT 08/M05 A3025 RMK A01 T00831047  RH  040%=      5-min Rain = 0
KNH1 160247Z 06009KT 08/M05 A3025 RMK A01 T00831047  RH  040%=      5-min Rain = 0
KNH1 160248Z 06011KT 08/M05 A3026 RMK A01 T00831046  RH  040%=      5-min Rain = 0
KNH1 160249Z 06007KT 08/M05 A3026 RMK A01 T00831046  RH  040%=      5-min Rain = 0
KNH1 160250Z 06011KT 08/M05 A3026 RMK A01 T00831046  RH  040%=      5-min Rain = 0
KNH1 160251Z 06009KT 08/M05 A3026 RMK A01 T00831046  RH  040%=      5-min Rain = 0
KNH1 160252Z 06008KT 08/M05 A3026 RMK A01 T00831046  RH  040%=      5-min Rain = 0
KNH1 160253Z 05010KT 08/M05 A3026 RMK A01 T00821046  RH  040%=      5-min Rain = 0
KNH1 160254Z 06009KT 08/M05 A3026 RMK A01 T00821046  RH  040%=      5-min Rain = 0
KNH1 160255Z 07009KT 08/M05 A3026 RMK A01 T00821045  RH  040%=      5-min Rain = 0
KNH1 160256Z 06009KT 08/M05 A3026 RMK A01 T00821046  RH  040%=      5-min Rain = 0
KNH1 160257Z 07011G18KT 08/M05 A3027 RMK A01 T00821046  RH  040%=      5-min Rain = 0
KNH1 160258Z 07013KT 08/M05 A3026 RMK A01 T00821045  RH  040%=      5-min Rain = 0
KNH1 160259Z 06009KT 08/M05 A3026 RMK A01 T00821045  RH  040%=      5-min Rain = 0
KNH1 160300Z 05010KT 08/M05 A3026 RMK A01 T00821045  RH  040%=      5-min Rain = 0
KNH1 160301Z 05011KT 08/M05 A3026 RMK A01 T00811045  RH  041%=      5-min Rain = 0
KNH1 160302Z 05010KT 08/M05 A3026 RMK A01 T00811045  RH  041%=      5-min Rain = 0
KNH1 160303Z 05011KT 08/M05 A3026 RMK A01 T00811045  RH  041%=      5-min Rain = 0
KNH1 160304Z 06011KT 08/M04 A3026 RMK A01 T00811044  RH  041%=      5-min Rain = 0
KNH1 160305Z 06010KT 08/M04 A3026 RMK A01 T00811044  RH  041%=      5-min Rain = 0
KNH1 160306Z 06011KT 08/M04 A3026 RMK A01 T00811044  RH  041%=      5-min Rain = 0
KNH1 160307Z 05013KT 08/M04 A3026 RMK A01 T00801044  RH  041%=      5-min Rain = 0
KNH1 160308Z 05010KT 08/M04 A3026 RMK A01 T00801044  RH  041%=      5-min Rain = 0
KNH1 160309Z 06011KT 08/M04 A3026 RMK A01 T00801044  RH  041%=      5-min Rain = 0
KNH1 160310Z 06014KT 08/M04 A3026 RMK A01 T00801043  RH  041%=      5-min Rain = 0
KNH1 160311Z 06012KT 08/M04 A3026 RMK A01 T00801043  RH  041%=      5-min Rain = 0
KNH1 160312Z 07013KT 08/M04 A3027 RMK A01 T00801044  RH  041%=      5-min Rain = 0
KNH1 160313Z 06010KT 08/M04 A3027 RMK A01 T00801043  RH  042%=      5-min Rain = 0
KNH1 160314Z 06011KT 08/M04 A3027 RMK A01 T00791043  RH  042%=      5-min Rain = 0
KNH1 160315Z 06014KT 08/M04 A3027 RMK A01 T00791043  RH  042%=      5-min Rain = 0
KNH1 160316Z 06011KT 08/M04 A3027 RMK A01 T00791043  RH  042%=      5-min Rain = 0
KNH1 160317Z 06013KT 08/M04 A3027 RMK A01 T00791042  RH  042%=      5-min Rain = 0
KNH1 160318Z 06011KT 08/M04 A3027 RMK A01 T00791043  RH  042%=      5-min Rain = 0
KNH1 160319Z 06011KT 08/M04 A3027 RMK A01 T00791042  RH  042%=      5-min Rain = 0
KNH1 160320Z 05010KT 08/M04 A3027 RMK A01 T00791042  RH  042%=      5-min Rain = 0
KNH1 160321Z 06011KT 08/M04 A3027 RMK A01 T00781042  RH  042%=      5-min Rain = 0
KNH1 160322Z 06008KT 08/M04 A3027 RMK A01 T00781042  RH  042%=      5-min Rain = 0
KNH1 160323Z 07009KT 08/M04 A3027 RMK A01 T00791041  RH  042%=      5-min Rain = 0
KNH1 160324Z 06009KT 08/M04 A3027 RMK A01 T00781041  RH  043%=      5-min Rain = 0
KNH1 160325Z 06011G16KT 08/M04 A3027 RMK A01 T00781042  RH  043%=      5-min Rain = 0
KNH1 160326Z 06010KT 08/M04 A3027 RMK A01 T00781042  RH  042%=      5-min Rain = 0
KNH1 160327Z 06011KT 08/M04 A3027 RMK A01 T00781042  RH  042%=      5-min Rain = 0
KNH1 160328Z 06012KT 08/M04 A3027 RMK A01 T00781042  RH  042%=      5-min Rain = 0
KNH1 160329Z 05009KT 08/M04 A3027 RMK A01 T00781042  RH  042%=      5-min Rain = 0
KNH1 160330Z 05012KT 08/M04 A3027 RMK A01 T00781042  RH  043%=      5-min Rain = 0
KNH1 160331Z 05012G17KT 08/M04 A3027 RMK A01 T00781042  RH  042%=      5-min Rain = 0
KNH1 160332Z 05010KT 08/M04 A3027 RMK A01 T00771042  RH  043%=      5-min Rain = 0
KNH1 160333Z 05010KT 08/M04 A3027 RMK A01 T00771042  RH  043%=      5-min Rain = 0
KNH1 160334Z 05010KT 08/M04 A3027 RMK A01 T00771041  RH  043%=      5-min Rain = 0
KNH1 160335Z 05011KT 08/M04 A3027 RMK A01 T00771042  RH  043%=      5-min Rain = 0
KNH1 160336Z 06009KT 08/M04 A3028 RMK A01 T00771041  RH  043%=      5-min Rain = 0
KNH1 160337Z 05009KT 08/M04 A3028 RMK A01 T00771042  RH  043%=      5-min Rain = 0
KNH1 160338Z 06009KT 08/M04 A3028 RMK A01 T00771041  RH  043%=      5-min Rain = 0
KNH1 160339Z 07008KT 08/M04 A3028 RMK A01 T00771041  RH  043%=      5-min Rain = 0
KNH1 160340Z 05010KT 08/M04 A3028 RMK A01 T00771041  RH  043%=      5-min Rain = 0
KNH1 160341Z 05009KT 08/M04 A3028 RMK A01 T00771041  RH  043%=      5-min Rain = 0
KNH1 160342Z 05008KT 08/M04 A3028 RMK A01 T00771040  RH  043%=      5-min Rain = 0
KNH1 160343Z 05007KT 08/M04 A3029 RMK A01 T00771040  RH  043%=      5-min Rain = 0
KNH1 160344Z 05008KT 08/M04 A3029 RMK A01 T00771040  RH  043%=      5-min Rain = 0
KNH1 160345Z 04009KT 08/M04 A3029 RMK A01 T00771040  RH  043%=      5-min Rain = 0
KNH1 160346Z 05009KT 08/M04 A3029 RMK A01 T00761040  RH  043%=      5-min Rain = 0
KNH1 160347Z 05008KT 08/M04 A3029 RMK A01 T00771040  RH  043%=      5-min Rain = 0
KNH1 160348Z 05008KT 08/M04 A3029 RMK A01 T00771040  RH  043%=      5-min Rain = 0
KNH1 160349Z 05007KT 08/M04 A3029 RMK A01 T00761040  RH  044%=      5-min Rain = 0
KNH1 160350Z 05009KT 08/M04 A3029 RMK A01 T00761040  RH  044%=      5-min Rain = 0
KNH1 160351Z 05007KT 08/M04 A303 RMK A01 T00761040  RH  044%=      5-min Rain = 0
KNH1 160352Z 05006KT 08/M04 A303 RMK A01 T00761040  RH  044%=      5-min Rain = 0
KNH1 160353Z 05008KT 08/M04 A303 RMK A01 T00761040  RH  044%=      5-min Rain = 0
KNH1 160354Z 05009KT 08/M04 A303 RMK A01 T00761040  RH  044%=      5-min Rain = 0
KNH1 160355Z 05008KT 08/M04 A303 RMK A01 T00761040  RH  044%=      5-min Rain = 0
KNH1 160356Z 05009KT 08/M04 A303 RMK A01 T00761040  RH  044%=      5-min Rain = 0
KNH1 160357Z 05007KT 08/M04 A303 RMK A01 T00761039  RH  044%=      5-min Rain = 0
KNH1 160358Z 05010KT 08/M04 A3029 RMK A01 T00761039  RH  044%=      5-min Rain = 0
KNH1 160359Z 06010KT 08/M04 A3029 RMK A01 T00761039  RH  044%=      5-min Rain = 0
KNH1 160400Z 05010KT 08/M04 A3029 RMK A01 T00761039  RH  044%=      5-min Rain = 0
KNH1 160401Z 06009KT 08/M04 A3029 RMK A01 T00761039  RH  044%=      5-min Rain = 0
KNH1 160402Z 06011KT 08/M04 A3029 RMK A01 T00761039  RH  044%=      5-min Rain = 0
KNH1 160403Z 05010KT 08/M04 A3029 RMK A01 T00761039  RH  044%=      5-min Rain = 0
KNH1 160404Z 05010KT 08/M04 A3029 RMK A01 T00761039  RH  044%=      5-min Rain = 0
KNH1 160405Z 05009KT 08/M04 A3029 RMK A01 T00761038  RH  044%=      5-min Rain = 0
KNH1 160406Z 06011KT 08/M04 A3028 RMK A01 T00761038  RH  044%=      5-min Rain = 0
KNH1 160407Z 05010KT 08/M04 A3028 RMK A01 T00761039  RH  044%=      5-min Rain = 0
KNH1 160408Z 06010KT 08/M04 A3028 RMK A01 T00761038  RH  044%=      5-min Rain = 0
KNH1 160409Z 06009KT 08/M04 A3028 RMK A01 T00761038  RH  044%=      5-min Rain = 0
KNH1 160410Z 06009KT 08/M04 A3029 RMK A01 T00761038  RH  044%=      5-min Rain = 0
KNH1 160411Z 07009KT 08/M04 A3029 RMK A01 T00751038  RH  044%=      5-min Rain = 0
KNH1 160412Z 06009KT 08/M04 A3029 RMK A01 T00751038  RH  044%=      5-min Rain = 0
KNH1 160413Z 06007KT 08/M04 A3029 RMK A01 T00751038  RH  044%=      5-min Rain = 0
KNH1 160414Z 06007KT 08/M04 A303 RMK A01 T00751038  RH  045%=      5-min Rain = 0
KNH1 160415Z 06008KT 08/M04 A303 RMK A01 T00751038  RH  045%=      5-min Rain = 0
KNH1 160416Z 07007KT 08/M04 A303 RMK A01 T00751038  RH  045%=      5-min Rain = 0
KNH1 160417Z 06007KT 08/M04 A303 RMK A01 T00751037  RH  045%=      5-min Rain = 0
KNH1 160418Z 06008KT 08/M04 A303 RMK A01 T00751037  RH  045%=      5-min Rain = 0
KNH1 160419Z 06008KT 08/M04 A303 RMK A01 T00751037  RH  045%=      5-min Rain = 0
KNH1 160420Z 06008KT 08/M04 A303 RMK A01 T00751037  RH  045%=      5-min Rain = 0
KNH1 160421Z 07008KT 08/M04 A303 RMK A01 T00751037  RH  045%=      5-min Rain = 0
KNH1 160422Z 06007KT 08/M04 A303 RMK A01 T00751037  RH  045%=      5-min Rain = 0
KNH1 160423Z 06007KT 08/M04 A303 RMK A01 T00751037  RH  045%=      5-min Rain = 0
KNH1 160424Z 06007KT 08/M04 A303 RMK A01 T00751037  RH  045%=      5-min Rain = 0
KNH1 160425Z 06008KT 07/M04 A303 RMK A01 T00741037  RH  045%=      5-min Rain = 0
KNH1 160426Z 06008KT 07/M04 A303 RMK A01 T00741037  RH  045%=      5-min Rain = 0
KNH1 160427Z 05008KT 07/M04 A303 RMK A01 T00741037  RH  045%=      5-min Rain = 0
KNH1 160428Z 05008KT 07/M04 A303 RMK A01 T00741037  RH  045%=      5-min Rain = 0
KNH1 160429Z 05009KT 07/M04 A303 RMK A01 T00741037  RH  045%=      5-min Rain = 0
KNH1 160430Z 06008KT 07/M04 A303 RMK A01 T00741037  RH  045%=      5-min Rain = 0
KNH1 160431Z 05008KT 07/M04 A303 RMK A01 T00741036  RH  045%=      5-min Rain = 0
KNH1 160432Z 05010KT 07/M04 A303 RMK A01 T00741036  RH  045%=      5-min Rain = 0
KNH1 160433Z 05006KT 07/M04 A303 RMK A01 T00741036  RH  045%=      5-min Rain = 0
KNH1 160434Z 05009KT 07/M04 A303 RMK A01 T00741036  RH  045%=      5-min Rain = 0
KNH1 160435Z 05009KT 07/M04 A303 RMK A01 T00741037  RH  045%=      5-min Rain = 0
KNH1 160436Z 05009KT 07/M04 A303 RMK A01 T00741036  RH  045%=      5-min Rain = 0
KNH1 160437Z 05010KT 07/M04 A303 RMK A01 T00741036  RH  045%=      5-min Rain = 0
KNH1 160438Z 05010KT 07/M04 A303 RMK A01 T00741036  RH  045%=      5-min Rain = 0
KNH1 160439Z 05012KT 07/M04 A303 RMK A01 T00741036  RH  045%=      5-min Rain = 0
KNH1 160440Z 05011KT 07/M04 A303 RMK A01 T00741036  RH  045%=      5-min Rain = 0
KNH1 160441Z 05011KT 07/M04 A303 RMK A01 T00741036  RH  045%=      5-min Rain = 0
KNH1 160442Z 05010KT 08/M04 A303 RMK A01 T00751036  RH  045%=      5-min Rain = 0
KNH1 160443Z 05010KT 07/M04 A303 RMK A01 T00741036  RH  045%=      5-min Rain = 0
KNH1 160444Z 05010KT 07/M04 A303 RMK A01 T00741036  RH  045%=      5-min Rain = 0
KNH1 160445Z 05011KT 07/M04 A3031 RMK A01 T00741036  RH  045%=      5-min Rain = 0
KNH1 160446Z 05009KT 07/M04 A3031 RMK A01 T00741036  RH  045%=      5-min Rain = 0
KNH1 160447Z 05009KT 07/M04 A3031 RMK A01 T00741036  RH  046%=      5-min Rain = 0
KNH1 160448Z 05008G14KT 07/M04 A3031 RMK A01 T00741035  RH  046%=      5-min Rain = 0
KNH1 160449Z 05008KT 07/M04 A3031 RMK A01 T00741035  RH  046%=      5-min Rain = 0
KNH1 160450Z 05008KT 07/M04 A3031 RMK A01 T00741035  RH  046%=      5-min Rain = 0
KNH1 160451Z 05008KT 07/M04 A3031 RMK A01 T00741035  RH  046%=      5-min Rain = 0
KNH1 160452Z 06010KT 07/M04 A3031 RMK A01 T00741035  RH  046%=      5-min Rain = 0
KNH1 160453Z 06008KT 07/M04 A3031 RMK A01 T00741035  RH  046%=      5-min Rain = 0
KNH1 160454Z 06008KT 07/M03 A3032 RMK A01 T00741034  RH  046%=      5-min Rain = 0
KNH1 160455Z 05008KT 07/M03 A3032 RMK A01 T00741034  RH  046%=      5-min Rain = 0
KNH1 160456Z 05009KT 07/M03 A3032 RMK A01 T00741034  RH  046%=      5-min Rain = 0
KNH1 160457Z 05009KT 07/M04 A3032 RMK A01 T00741035  RH  046%=      5-min Rain = 0
KNH1 160458Z 05009KT 07/M03 A3033 RMK A01 T00741034  RH  046%=      5-min Rain = 0
KNH1 160459Z 05009KT 07/M03 A3033 RMK A01 T00741034  RH  046%=      5-min Rain = 0
KNH1 160500Z 05008KT 07/M03 A3033 RMK A01 T00741034  RH  046%=      5-min Rain = 0
KNH1 160501Z 04006KT 07/M03 A3033 RMK A01 T00741034  RH  046%=      5-min Rain = 0
KNH1 160502Z 04006KT 07/M03 A3034 RMK A01 T00741034  RH  046%=      5-min Rain = 0
KNH1 160503Z 04008KT 07/M03 A3034 RMK A01 T00731034  RH  046%=      5-min Rain = 0
KNH1 160504Z 04008KT 07/M03 A3034 RMK A01 T00741034  RH  046%=      5-min Rain = 0
KNH1 160505Z 04008KT 07/M03 A3034 RMK A01 T00731034  RH  046%=      5-min Rain = 0
KNH1 160506Z 04009KT 07/M03 A3034 RMK A01 T00731034  RH  046%=      5-min Rain = 0
KNH1 160507Z 04007KT 07/M03 A3034 RMK A01 T00741034  RH  046%=      5-min Rain = 0
KNH1 160508Z 03006KT 07/M03 A3034 RMK A01 T00731034  RH  046%=      5-min Rain = 0
KNH1 160509Z 04006KT 07/M03 A3034 RMK A01 T00731034  RH  047%=      5-min Rain = 0
KNH1 160510Z 04006KT 07/M03 A3035 RMK A01 T00741034  RH  046%=      5-min Rain = 0
KNH1 160511Z 04007KT 07/M03 A3035 RMK A01 T00731034  RH  047%=      5-min Rain = 0
KNH1 160512Z 04007KT 07/M03 A3034 RMK A01 T00731033  RH  047%=      5-min Rain = 0
KNH1 160513Z 05008KT 07/M03 A3034 RMK A01 T00731033  RH  047%=      5-min Rain = 0
KNH1 160514Z 05008KT 07/M03 A3034 RMK A01 T00731033  RH  047%=      5-min Rain = 0
KNH1 160515Z 05008KT 07/M03 A3034 RMK A01 T00731033  RH  047%=      5-min Rain = 0
KNH1 160516Z 06009KT 07/M03 A3034 RMK A01 T00731033  RH  047%=      5-min Rain = 0
KNH1 160517Z 05008KT 07/M03 A3034 RMK A01 T00731033  RH  047%=      5-min Rain = 0
KNH1 160518Z 05008KT 07/M03 A3034 RMK A01 T00731033  RH  047%=      5-min Rain = 0
KNH1 160519Z 05010KT 07/M03 A3034 RMK A01 T00721033  RH  047%=      5-min Rain = 0
KNH1 160520Z 05008KT 07/M03 A3034 RMK A01 T00721033  RH  047%=      5-min Rain = 0
KNH1 160521Z 06008KT 07/M03 A3034 RMK A01 T00721032  RH  047%=      5-min Rain = 0
KNH1 160522Z 06007G14KT 07/M03 A3034 RMK A01 T00731032  RH  047%=      5-min Rain = 0
KNH1 160523Z 05009KT 07/M03 A3034 RMK A01 T00721032  RH  047%=      5-min Rain = 0
KNH1 160524Z 05007KT 07/M03 A3034 RMK A01 T00721032  RH  047%=      5-min Rain = 0
KNH1 160525Z 05005KT 07/M03 A3034 RMK A01 T00721032  RH  047%=      5-min Rain = 0
KNH1 160526Z 04007KT 07/M03 A3034 RMK A01 T00721032  RH  048%=      5-min Rain = 0
KNH1 160527Z 04008KT 07/M03 A3034 RMK A01 T00721032  RH  048%=      5-min Rain = 0
KNH1 160528Z 04007KT 07/M03 A3034 RMK A01 T00721033  RH  048%=      5-min Rain = 0
KNH1 160529Z 04007KT 07/M03 A3035 RMK A01 T00711033  RH  047%=      5-min Rain = 0
KNH1 160530Z 04007KT 07/M03 A3035 RMK A01 T00721032  RH  048%=      5-min Rain = 0
KNH1 160531Z 04007KT 07/M03 A3035 RMK A01 T00721032  RH  048%=      5-min Rain = 0
KNH1 160532Z 04010KT 07/M03 A3035 RMK A01 T00711032  RH  048%=      5-min Rain = 0
KNH1 160533Z 04009KT 07/M03 A3035 RMK A01 T00721032  RH  048%=      5-min Rain = 0
KNH1 160534Z 05009KT 07/M03 A3035 RMK A01 T00721032  RH  048%=      5-min Rain = 0
KNH1 160535Z 05007KT 07/M03 A3035 RMK A01 T00721032  RH  048%=      5-min Rain = 0
KNH1 160536Z 05009KT 07/M03 A3035 RMK A01 T00711032  RH  048%=      5-min Rain = 0
KNH1 160537Z 05008KT 07/M03 A3035 RMK A01 T00711031  RH  048%=      5-min Rain = 0
KNH1 160538Z 05009KT 07/M03 A3035 RMK A01 T00711030  RH  048%=      5-min Rain = 0
KNH1 160539Z 05009KT 07/M03 A3035 RMK A01 T00711031  RH  048%=      5-min Rain = 0
KNH1 160540Z 04009KT 07/M03 A3035 RMK A01 T00711030  RH  048%=      5-min Rain = 0
KNH1 160541Z 04007KT 07/M03 A3036 RMK A01 T00711030  RH  048%=      5-min Rain = 0
KNH1 160542Z 04006KT 07/M03 A3036 RMK A01 T00711030  RH  049%=      5-min Rain = 0
KNH1 160543Z 04007KT 07/M03 A3036 RMK A01 T00711030  RH  049%=      5-min Rain = 0
KNH1 160544Z 04006KT 07/M03 A3036 RMK A01 T00701030  RH  049%=      5-min Rain = 0
KNH1 160545Z 04007KT 07/M03 A3036 RMK A01 T00701030  RH  049%=      5-min Rain = 0
KNH1 160546Z 04008KT 07/M03 A3036 RMK A01 T00701030  RH  049%=      5-min Rain = 0
KNH1 160547Z 03007G12KT 07/M03 A3036 RMK A01 T00701031  RH  049%=      5-min Rain = 0
KNH1 160548Z 04009KT 07/M03 A3036 RMK A01 T00701031  RH  049%=      5-min Rain = 0
KNH1 160549Z 05008KT 07/M03 A3036 RMK A01 T00701031  RH  049%=      5-min Rain = 0
KNH1 160550Z 04009KT 07/M03 A3036 RMK A01 T00701031  RH  049%=      5-min Rain = 0
KNH1 160551Z 05011KT 07/M03 A3036 RMK A01 T00701031  RH  049%=      5-min Rain = 0
KNH1 160552Z 04010KT 07/M03 A3036 RMK A01 T00701031  RH  049%=      5-min Rain = 0
KNH1 160553Z 04009KT 07/M03 A3036 RMK A01 T00701031  RH  049%=      5-min Rain = 0
KNH1 160554Z 04007KT 07/M03 A3036 RMK A01 T00701031  RH  049%=      5-min Rain = 0
KNH1 160555Z 04006KT 07/M03 A3036 RMK A01 T00691031  RH  049%=      5-min Rain = 0
KNH1 160556Z 04006KT 07/M03 A3036 RMK A01 T00691031  RH  049%=      5-min Rain = 0
KNH1 160557Z 04007KT 07/M03 A3036 RMK A01 T00691031  RH  049%=      5-min Rain = 0
KNH1 160558Z 04008KT 07/M03 A3036 RMK A01 T00681031  RH  049%=      5-min Rain = 0
KNH1 160559Z 04007KT 07/M03 A3036 RMK A01 T00681031  RH  049%=      5-min Rain = 0

Page generated in 0.0874 seconds.